GFSNE_con_lsi_000.txt.gz
Lid_Strength_Index
5 5 4 4 4 3 2 4 6 8 6 6 5 3 3 2 1 1 0 -1 0 1 2 3 3 2 3 3 3 3 3 2 2 2 2 3 3 3
4 4 4 4 4 4 3 3 4 5 7 5 4 4 3 2 1 1 0 -1 -1 0 2 3 3 2 3 3 3 3 4 3 3 3 3 4 5 5
5 6 6 6 7 6 6 5 4 4 6 6 5 5 5 5 4 3 1 1 0 0 1 3 3 3 3 3 4 4 4 4 4 4 4 4 4 5
7 7 7 6 7 7 7 7 6 6 5 7 7 6 6 5 5 4 3 2 1 1 0 1 3 4 3 4 4 5 4 5 5 5 4 5 5 6
8 8 8 8 8 8 7 7 6 5 6 7 7 7 7 6 6 5 5 5 3 0 1 1 1 1 3 3 4 4 4 5 5 6 6 5 6 6
7 8 8 8 8 8 7 7 6 7 7 8 8 8 8 7 6 7 8 7 6 4 3 3 3 2 2 3 3 3 3 4 5 5 6 6 7 7
8 8 8 6 5 5 5 5 7 8 8 8 9 9 9 10 9 8 9 9 8 7 6 6 7 6 5 4 3 2 3 4 4 5 5 6 6 6
9 8 8 6 6 5 4 4 5 6 7 8 9 10 10 10 10 10 11 10 10 8 8 8 7 7 6 5 3 3 3 4 4 4 5 5 5 6
8 9 8 7 7 6 5 4 5 4 4 6 8 8 9 9 9 11 11 11 11 9 9 10 8 9 8 6 4 4 4 4 4 5 5 5 5 6
8 9 9 8 8 7 6 5 5 6 6 6 7 7 7 7 8 9 10 10 9 9 9 12 10 10 9 8 5 3 4 4 4 4 5 5 6 6
8 8 8 8 7 5 6 7 7 6 5 4 4 4 4 5 6 8 9 10 11 11 10 11 11 13 13 12 10 5 4 4 4 4 4 5 5 5
10 9 8 8 7 6 6 7 8 8 8 8 7 7 7 8 8 8 9 11 11 13 11 11 11 12 14 13 12 12 12 7 5 4 4 4 5 7
11 10 9 8 7 7 6 7 7 7 7 7 8 9 10 10 10 10 10 10 12 11 9 9 11 12 12 12 12 11 12 12 11 8 5 4 4 5
11 10 10 8 8 7 7 7 7 7 8 10 10 11 11 11 10 9 8 9 9 9 8 8 10 10 12 14 12 11 12 12 13 10 11 7 6 5
11 10 9 9 9 9 9 8 9 9 10 12 11 10 10 9 9 9 8 8 7 7 7 8 8 9 10 11 13 12 12 12 13 12 12 11 10 11
11 11 11 10 11 11 11 10 11 11 11 12 11 10 9 9 9 9 9 9 9 10 8 8 8 8 8 8 8 9 10 11 12 12 7 7 7 7
14 15 13 13 13 13 13 12 12 12 13 12 12 12 11 10 10 9 10 9 11 13 12 10 9 9 8 8 8 7 9 11 12 10 10 10 11 9
15 16 18 17 15 14 15 15 13 12 12 12 12 12 12 11 11 10 10 12 12 12 12 10 10 9 9 9 6 8 8 8 12 10 9 9 9 11
17 16 18 18 18 15 15 15 15 14 13 13 13 13 13 12 12 12 14 14 14 12 12 12 10 9 10 13 11 6 8 7 9 14 12 9 8 11
17 17 17 16 16 15 16 16 16 17 17 15 15 15 14 13 14 13 14 15 13 11 12 13 13 12 14 14 14 15 8 9 9 10 9 10 9 7
17 17 17 16 16 16 18 18 19 19 18 19 17 16 15 14 14 13 14 16 16 13 14 14 13 12 11 11 15 16 16 8 11 15 14 15 14 12
20 17 17 17 17 17 19 20 19 21 19 19 19 18 17 16 15 14 15 17 16 17 15 14 11 10 12 12 15 18 16 17 12 8 8 9 13 14
21 19 20 21 20 19 16 18 19 20 20 19 19 18 19 18 15 15 16 17 16 16 16 13 13 12 11 12 15 13 17 18 12 14 16 9 8 7

GFSNE_con_lsi_003.txt.gz
Lid_Strength_Index
7 7 6 6 6 5 5 5 5 9 9 7 6 4 2 2 2 2 2 -0 1 0 0 0 0 0 1 2 3 4 3 2 1 1 2 2 3 3
6 7 7 6 7 7 7 6 6 6 9 6 6 4 3 3 2 3 3 -1 -0 0 0 1 0 1 2 2 2 3 3 3 2 2 2 3 3 4
8 7 8 7 8 8 8 8 7 7 8 7 4 3 4 4 4 3 3 3 1 -0 0 1 1 1 1 3 3 3 4 4 3 3 3 3 3 3
8 8 8 7 9 9 9 9 8 7 8 9 6 6 5 5 5 4 4 3 4 1 0 -0 1 1 1 3 4 4 4 4 4 4 4 4 4 4
8 8 8 8 9 9 8 8 7 6 7 8 8 7 6 5 6 4 5 5 4 2 2 1 2 1 1 2 3 4 5 5 5 5 5 5 5 5
7 8 8 8 9 9 8 7 6 6 7 7 8 8 7 7 6 7 8 7 7 4 3 3 3 3 1 2 4 4 4 5 5 5 6 7 7 6
8 8 8 7 6 7 7 8 7 6 7 6 8 8 9 9 9 8 8 9 8 7 7 6 6 6 5 3 3 3 4 4 4 4 5 6 7 7
9 8 8 7 7 7 6 6 6 7 7 7 7 7 8 9 9 9 9 10 11 8 8 8 6 7 7 5 3 3 3 4 4 4 5 5 6 7
8 8 9 8 8 8 7 6 6 5 4 5 7 7 8 9 8 9 10 10 10 9 9 10 8 8 7 6 4 3 3 3 4 5 5 6 6 7
9 9 10 9 9 8 7 7 6 6 5 5 6 7 7 7 7 7 8 9 9 8 9 13 10 11 7 6 5 3 3 3 3 4 5 6 6 6
9 10 9 10 8 6 7 7 7 6 5 4 4 4 4 4 5 6 8 8 10 9 9 10 12 13 13 12 8 4 4 3 3 4 4 5 5 5
10 10 9 9 8 7 9 8 9 8 7 7 7 6 6 6 6 6 8 9 10 12 10 11 11 12 14 13 13 12 12 6 5 4 4 4 4 7
11 11 10 9 8 8 8 8 8 7 7 7 7 8 8 8 8 8 9 10 11 12 10 10 11 12 13 13 13 12 12 12 12 8 6 4 4 5
12 11 11 9 9 9 9 8 8 8 9 9 9 9 9 9 8 8 8 9 9 10 10 9 12 11 13 15 14 13 13 13 14 11 11 7 5 5
11 10 10 10 10 10 10 9 10 11 11 11 11 10 9 8 8 8 8 8 8 8 8 8 9 9 11 11 12 13 13 12 15 13 10 10 11 12
12 13 12 11 13 13 13 11 12 12 12 12 12 11 9 9 9 8 9 9 9 9 8 7 7 8 9 8 9 10 12 9 13 13 11 7 8 7
17 17 15 15 15 14 15 14 13 13 13 13 13 12 11 10 10 9 9 9 11 11 11 11 8 7 8 8 9 9 8 10 11 11 9 11 12 10
17 19 18 19 18 15 16 17 16 15 14 13 14 13 13 12 11 10 10 11 11 11 11 9 9 9 9 10 7 8 8 8 7 8 9 9 11 11
19 20 20 18 18 15 16 16 18 17 16 15 15 15 14 13 12 12 12 12 12 12 13 14 11 9 10 12 12 7 8 7 8 9 9 9 11 11
17 19 20 19 16 15 15 17 17 19 21 18 17 16 16 15 14 13 13 15 14 12 12 12 13 12 14 16 14 14 9 9 8 9 9 9 8 8
17 17 20 19 18 16 18 19 22 22 22 23 21 18 17 16 15 14 14 15 15 13 14 15 14 12 13 12 14 17 17 9 11 14 13 13 15 11
19 17 17 19 20 20 21 20 19 20 20 20 21 21 20 18 16 16 17 20 17 17 16 14 12 11 13 13 17 19 16 15 11 9 9 11 15 16
19 18 20 22 23 23 20 22 20 20 19 20 20 20 21 19 18 18 17 17 17 17 16 14 13 13 13 13 16 16 16 17 12 14 16 10 8 8

GFSNE_con_lsi_006.txt.gz
Lid_Strength_Index
6 6 6 6 6 7 6 6 8 11 10 8 6 3 3 2 2 2 2 1 -0 0 1 1 1 0 1 2 3 3 3 2 1 -0 -1 0 1 1
5 5 7 7 7 7 7 7 7 9 12 8 7 5 3 2 2 2 3 1 1 -0 1 1 1 1 1 0 1 2 3 1 1 0 1 1 2 2
6 7 7 7 7 8 8 8 8 8 10 9 7 5 5 4 3 2 2 3 3 1 0 0 1 2 2 2 1 1 2 2 1 0 1 1 2 2
6 7 7 7 8 9 9 9 8 8 8 9 7 6 5 4 4 3 2 2 4 1 1 0 0 1 2 2 2 2 3 3 2 3 2 2 1 2
7 7 8 8 9 9 9 9 8 7 7 7 7 6 5 5 5 4 3 4 4 2 2 2 1 1 1 1 1 2 3 3 4 4 4 4 3 4
7 8 8 9 9 9 8 9 8 8 8 7 7 7 6 5 6 6 6 5 5 5 4 3 3 2 2 2 2 2 2 2 3 4 5 6 6 5
8 8 8 7 6 6 8 9 9 8 8 7 8 7 7 7 7 6 7 7 6 5 5 5 5 5 3 2 2 1 2 2 3 5 5 6 6 6
8 8 8 7 8 7 7 7 7 8 8 8 8 7 7 6 6 6 8 8 8 5 6 6 5 5 5 4 2 2 2 2 3 4 4 5 6 7
9 10 10 9 9 9 8 7 7 6 5 6 7 7 6 5 5 6 8 8 8 7 6 7 7 7 5 5 3 3 3 3 3 3 4 5 6 6
10 10 10 10 9 9 8 8 8 7 6 6 6 5 5 4 5 6 7 8 8 7 6 9 7 8 6 5 4 3 3 3 3 3 4 5 6 6
10 10 10 10 9 7 9 9 9 8 6 5 4 4 4 4 4 6 8 8 9 8 6 7 8 8 9 7 6 4 3 3 3 3 3 4 5 7
10 10 9 9 8 8 9 10 10 9 7 6 6 6 5 5 5 6 6 8 8 9 7 8 8 9 10 9 8 7 7 6 4 3 3 3 4 5
11 11 10 9 9 8 8 10 9 9 9 8 7 7 6 7 7 7 7 8 9 9 7 8 9 9 10 9 8 8 8 7 6 6 5 4 3 4
12 11 11 9 9 10 10 9 9 10 10 10 9 9 8 7 6 6 6 7 7 8 8 7 9 9 10 11 10 8 8 8 8 7 6 7 5 4
12 11 10 10 10 11 11 10 11 11 12 12 11 10 9 7 6 6 6 6 7 7 8 8 8 9 9 10 10 10 9 8 10 8 8 7 7 7
14 14 13 11 14 13 13 13 13 12 13 13 12 11 9 9 8 7 8 8 9 8 7 7 8 8 9 9 9 9 9 9 9 9 8 8 7 7
18 19 17 14 15 14 14 14 15 14 14 13 13 13 12 10 9 8 8 8 9 9 9 8 7 7 7 7 8 8 8 9 8 8 8 8 8 7
17 20 22 21 17 15 15 16 16 17 16 14 14 14 13 13 11 10 10 10 10 10 10 9 8 9 9 8 7 8 8 8 8 8 8 8 8 7
19 20 23 23 20 15 15 15 16 17 17 16 15 15 15 13 12 12 11 11 11 10 11 10 10 9 10 11 10 7 8 8 7 7 7 7 8 7
17 19 20 20 18 15 15 16 16 18 19 19 18 17 16 15 14 13 13 13 13 12 12 11 11 11 11 11 11 10 9 9 8 8 8 8 7 7
17 16 19 19 17 17 20 20 19 18 19 21 20 19 19 16 15 14 15 16 15 13 14 13 12 11 11 10 11 11 12 10 9 9 9 10 10 9
17 16 16 17 18 19 22 24 21 19 18 18 19 20 20 19 17 17 16 16 15 15 14 13 11 10 10 11 12 13 12 11 10 9 9 9 10 11
17 16 17 19 21 22 18 21 21 21 20 18 18 18 20 19 18 17 17 16 16 16 15 14 13 12 11 12 12 12 12 13 11 11 10 10 8 8

GFSNE_con_lsi_009.txt.gz
Lid_Strength_Index
3 2 2 2 1 2 3 3 5 8 8 5 6 3 3 2 2 1 0 1 1 1 -0 -0 1 -0 -1 -0 1 2 3 2 0 -0 -1 -1 -0 0
2 2 2 2 3 3 3 4 4 7 9 6 6 5 4 4 3 2 1 1 1 1 0 -0 0 1 0 -0 -0 1 2 2 1 0 -1 -1 -0 0
2 3 3 3 3 4 4 5 6 6 8 7 6 4 4 3 3 2 0 0 0 1 1 0 0 1 1 1 1 1 1 2 0 -0 -0 0 1 1
3 4 4 4 4 4 5 6 6 6 7 8 6 5 4 3 3 2 1 1 1 1 2 1 1 0 1 1 1 2 2 2 1 1 1 0 0 0
4 4 4 4 5 5 6 6 6 7 7 7 8 6 5 4 3 3 2 1 1 2 2 2 1 1 1 1 0 1 2 2 2 3 3 3 2 2
4 4 5 5 6 6 6 7 7 8 8 8 8 7 6 4 4 4 4 2 2 3 2 3 3 2 2 1 1 1 1 2 3 3 4 4 5 4
5 5 5 6 6 7 7 7 8 9 8 8 8 7 7 6 5 4 4 3 3 2 3 2 2 1 1 1 1 1 1 1 2 2 4 4 5 5
7 7 7 7 7 8 8 7 7 8 8 8 7 7 7 5 4 4 5 5 5 1 2 3 2 2 2 1 2 2 1 2 1 2 3 4 4 5
8 8 8 8 8 8 7 7 7 7 7 7 7 6 6 5 4 5 5 5 5 3 4 4 3 4 3 3 3 2 2 2 2 2 2 3 4 5
8 8 8 8 8 8 7 8 8 8 7 7 6 5 4 4 4 4 4 4 3 3 3 6 3 4 3 3 3 3 2 3 3 3 3 3 3 4
8 8 8 8 8 7 8 9 9 8 7 7 5 5 4 4 4 4 5 5 6 5 4 5 5 4 4 3 2 3 3 2 3 3 3 4 4 4
8 8 9 9 8 8 9 9 10 9 9 8 7 5 5 4 4 4 5 6 6 7 5 6 5 5 6 3 3 2 2 4 3 3 3 3 3 3
9 9 9 9 8 9 9 9 9 9 9 9 8 7 5 5 4 4 4 5 6 6 5 5 5 5 6 5 3 3 3 3 2 3 4 3 3 3
9 9 9 9 9 9 10 10 10 10 9 10 9 8 7 6 5 4 4 4 4 5 4 4 5 6 7 7 7 4 3 3 3 3 3 4 5 4
9 10 10 10 10 10 11 11 11 10 10 11 10 9 8 6 5 5 4 4 4 4 5 4 5 6 6 7 8 6 6 4 3 3 3 3 3 3
10 10 11 11 11 11 10 11 11 11 12 11 11 10 8 7 6 5 5 4 5 5 5 5 5 6 7 7 8 8 7 7 4 4 4 4 5 4
10 10 10 10 10 10 11 11 12 12 12 12 11 10 10 9 7 6 6 6 6 6 6 5 5 5 6 6 8 7 7 7 6 6 6 6 4 4
9 10 11 11 11 11 11 12 12 13 13 12 11 11 10 9 9 8 7 7 7 7 7 7 6 6 7 6 6 6 6 6 6 6 6 7 6 5
9 9 10 10 11 11 11 11 13 13 14 13 12 12 11 10 9 9 9 9 9 8 8 7 7 7 8 8 7 7 6 6 6 6 6 6 7 6
9 9 9 9 10 10 11 11 12 13 13 14 13 13 12 11 11 10 10 10 9 9 8 8 8 8 9 9 8 7 8 6 6 6 6 6 6 6
7 8 8 9 9 9 10 11 12 12 13 14 13 13 13 12 12 11 11 12 12 11 11 10 9 9 8 7 8 8 7 9 7 6 6 7 7 7
7 7 7 7 8 9 9 10 11 11 12 13 14 13 13 13 13 12 12 11 11 11 11 10 9 8 8 8 9 9 8 8 9 9 9 8 7 8
6 6 6 6 7 8 9 9 11 11 12 12 13 13 13 14 13 12 12 12 12 12 11 11 10 9 8 9 9 8 10 9 8 8 8 10 8 8

GFSNE_con_lsi_015.txt.gz
Lid_Strength_Index
4 4 4 3 3 2 2 2 3 6 6 3 3 1 1 1 2 2 2 1 1 2 2 2 1 0 0 0 1 1 -1 -0 0 0 -1 -1 -1 -1
4 3 3 2 1 1 2 2 2 4 6 4 3 3 2 3 2 2 2 2 2 1 2 2 2 1 1 1 1 1 0 -1 0 1 1 -0 -1 -1
3 3 2 1 2 2 1 2 3 3 5 4 3 3 4 4 3 2 2 2 1 1 1 1 2 2 2 1 1 1 1 0 -0 0 1 2 -0 -1
3 2 2 2 2 2 2 3 3 3 4 6 5 5 5 4 3 3 3 3 2 2 1 1 1 1 1 1 1 1 1 1 1 0 1 2 1 -1
2 2 2 2 3 3 3 4 4 5 5 6 6 5 4 4 4 4 4 3 3 1 1 2 1 1 1 1 1 1 0 0 1 1 2 3 2 1
1 2 2 3 4 4 6 6 6 6 6 7 7 7 6 5 4 6 6 4 4 2 2 1 1 1 0 0 0 1 1 0 0 1 2 3 4 3
2 2 3 4 6 6 6 6 7 7 8 8 8 7 7 6 7 6 6 5 4 2 2 1 1 1 0 0 -0 1 2 1 1 1 2 3 3 3
4 4 4 4 5 6 6 6 7 8 8 8 8 8 8 7 6 6 6 6 6 1 2 2 1 1 1 0 2 2 2 1 1 0 1 2 3 4
4 4 5 5 5 5 6 6 6 6 6 6 8 8 8 7 7 6 6 5 5 3 2 4 1 2 1 1 1 2 2 3 1 1 1 2 3 4
4 4 5 5 6 7 8 7 7 6 6 6 7 7 7 7 7 6 6 5 4 3 2 5 2 2 1 1 2 2 2 3 3 1 1 2 3 3
4 5 5 7 8 8 8 8 8 7 5 6 7 6 6 6 6 6 6 6 5 5 2 3 3 2 2 2 0 2 2 3 4 3 2 2 2 3
5 5 7 8 9 9 8 9 9 8 8 8 8 7 6 5 4 4 5 6 5 5 2 3 3 3 5 2 1 1 2 2 3 4 3 3 3 2
6 6 6 8 8 9 8 8 8 8 9 8 8 7 6 5 4 4 3 4 5 5 3 3 3 3 4 4 2 1 1 2 2 3 3 3 3 4
6 6 6 8 8 9 8 8 9 8 7 8 8 8 7 7 5 4 3 3 2 3 3 2 3 4 4 4 4 2 1 1 1 2 2 2 3 4
6 6 8 7 8 7 7 8 8 7 8 9 9 8 7 6 5 3 2 2 2 2 3 2 2 3 4 5 5 4 4 3 1 1 1 2 2 2
6 5 6 7 7 8 7 6 6 7 9 9 9 8 7 6 6 5 4 3 3 3 3 3 3 3 4 4 4 5 4 5 2 2 1 1 1 0
6 6 6 6 6 6 6 6 6 7 8 9 9 9 8 8 7 5 5 4 4 4 4 4 3 3 4 4 5 5 5 4 3 3 3 3 2 2
7 6 6 6 6 7 7 7 6 7 7 8 9 9 9 9 8 7 6 6 6 5 4 3 4 5 5 4 3 5 4 5 4 4 4 5 5 3
7 6 6 5 6 6 6 6 7 7 7 7 8 9 9 9 8 8 7 7 7 6 5 4 4 5 6 7 4 4 5 4 4 4 4 5 5 4
6 6 5 5 5 5 5 6 6 6 7 8 8 8 9 9 9 9 8 9 8 8 7 6 5 7 8 8 6 5 6 5 4 5 5 4 5 7
5 5 4 4 4 4 4 5 5 6 7 8 8 8 8 9 10 9 9 9 8 8 9 9 7 7 6 5 7 7 6 7 6 6 5 5 6 6
4 4 4 4 4 4 4 4 5 5 6 6 7 7 8 8 9 10 10 10 9 9 9 7 6 6 6 7 7 7 7 6 7 7 7 7 7 7
3 3 3 3 3 4 4 5 5 5 6 6 6 7 8 8 8 8 10 10 10 10 10 9 8 6 6 7 7 6 7 7 7 7 7 7 7 7

GFSNE_con_lsi_018.txt.gz
Lid_Strength_Index
6 6 7 6 6 5 5 5 7 9 8 6 5 4 4 4 4 4 4 3 2 2 2 2 2 2 2 2 1 1 1 1 0 0 1 1 0 -1
6 6 6 6 5 4 4 4 5 6 8 6 5 5 5 4 4 4 5 3 3 3 2 2 1 1 2 2 1 1 1 0 -0 -1 0 1 2 1
6 6 5 5 4 4 4 4 5 5 8 7 5 5 6 6 5 5 4 5 4 2 2 2 1 2 2 2 2 2 1 0 0 -0 -1 0 1 1
6 6 5 3 4 4 4 6 6 6 7 9 7 7 7 6 6 6 5 4 4 3 2 2 1 1 1 1 2 2 1 1 0 0 1 1 1 1
7 6 5 4 6 6 7 7 7 6 7 8 9 7 7 7 7 6 5 5 4 3 3 2 2 2 1 1 1 1 1 1 1 0 1 2 2 2
5 5 5 5 7 8 8 9 8 9 9 9 9 9 8 7 7 7 8 6 6 5 4 3 2 2 2 2 1 1 1 1 1 1 1 2 3 3
6 5 5 5 6 7 8 9 9 10 10 10 10 9 9 9 9 8 8 8 7 6 6 5 4 3 3 2 1 1 2 2 1 1 1 2 2 3
7 7 6 5 5 6 5 5 7 10 10 10 10 10 9 9 8 8 9 10 10 6 7 6 3 3 2 1 1 1 2 2 1 1 1 1 3 4
7 7 7 6 6 8 7 7 8 7 6 8 9 8 8 9 9 10 11 10 10 7 7 7 4 4 2 0 1 1 2 3 2 2 1 1 3 4
7 7 7 8 9 9 9 10 9 9 8 7 9 9 9 8 9 9 9 9 8 7 6 8 4 5 2 2 0 1 2 2 2 2 1 1 2 3
6 6 7 8 8 8 10 10 10 9 6 7 7 7 6 6 6 8 9 9 10 7 6 5 4 4 4 5 4 1 1 2 2 3 1 1 2 3
7 7 7 8 8 8 10 11 11 10 10 10 9 8 7 7 5 6 7 8 8 8 6 5 4 4 7 6 5 6 6 2 2 4 3 1 2 2
8 8 7 7 7 8 8 10 10 9 9 9 8 8 8 7 7 7 6 5 6 6 4 5 5 4 6 5 4 3 5 5 3 3 4 3 3 2
8 8 7 6 7 7 8 8 8 8 10 11 10 9 9 9 8 7 5 3 4 5 4 4 6 6 6 5 5 4 4 5 3 3 4 3 3 4
8 6 6 6 6 7 6 7 9 10 11 13 11 9 9 8 7 7 6 4 3 3 3 4 5 5 6 6 6 5 5 6 4 4 4 5 4 5
7 7 8 8 9 9 9 7 8 9 10 12 13 10 9 8 9 7 7 6 6 4 4 4 4 5 7 7 7 8 7 7 5 5 4 4 5 5
9 10 10 9 8 8 9 8 8 8 10 12 13 11 10 9 9 8 7 7 7 6 5 5 4 5 5 5 9 8 8 8 5 5 6 7 6 6
9 11 12 11 10 9 10 10 10 10 9 11 12 12 11 10 10 9 7 8 8 8 7 5 4 6 6 6 4 8 6 9 8 7 6 8 9 8
11 11 10 10 7 8 9 9 10 10 10 10 11 12 12 11 10 10 9 9 9 8 7 7 5 6 8 8 5 3 7 4 6 10 9 10 10 8
8 8 8 9 8 8 9 9 10 11 11 10 13 11 13 12 12 11 11 10 10 9 8 8 7 8 9 9 8 7 5 8 6 8 10 10 9 6
7 7 7 7 7 8 10 10 10 11 12 14 12 10 11 11 12 12 11 12 11 9 10 10 8 7 7 7 8 7 8 5 6 8 7 8 9 10
6 6 6 7 7 7 8 9 9 11 10 10 11 12 10 13 13 12 13 12 11 12 11 9 8 7 7 7 8 8 8 8 7 6 6 7 9 11
5 5 5 5 6 6 7 8 9 10 10 12 12 12 13 14 12 10 11 12 11 11 12 12 9 8 7 7 9 7 10 10 10 10 11 7 7 7

GFSNE_con_lsi_021.txt.gz
Lid_Strength_Index
8 9 9 9 8 9 9 9 9 13 10 8 7 5 5 5 4 5 5 3 2 2 3 3 3 3 3 2 2 2 2 2 2 2 3 3 2 2
8 10 9 8 8 8 9 7 7 9 11 8 8 7 6 5 4 5 6 3 4 3 3 2 2 3 3 3 2 2 2 2 1 1 1 2 2 2
8 9 9 8 9 9 7 8 8 9 11 10 8 8 8 8 7 6 6 6 5 3 3 2 3 2 2 2 2 2 2 2 2 1 0 0 1 1
9 9 9 7 9 8 9 9 10 9 11 12 10 9 9 8 8 8 6 5 5 4 3 2 2 2 2 2 2 2 2 2 1 1 1 0 0 1
9 9 9 8 10 9 9 10 10 8 10 12 11 10 10 9 8 7 7 7 5 4 4 3 3 3 3 2 2 2 1 1 2 2 1 1 1 1
8 9 9 9 9 9 9 10 9 11 11 11 11 11 10 9 9 10 9 7 7 6 5 4 4 4 3 3 2 2 1 2 2 2 2 2 2 2
9 8 8 7 6 7 8 10 10 11 11 11 11 11 10 10 10 8 9 9 9 8 8 8 7 6 5 4 3 2 2 2 2 2 2 1 2 2
9 9 9 7 6 5 6 6 7 11 11 12 11 11 10 10 8 10 11 11 12 9 10 9 8 8 6 5 3 3 3 3 2 2 2 1 2 3
9 9 8 7 8 9 8 8 8 8 8 10 11 12 12 10 10 10 11 11 12 10 10 10 9 8 5 3 2 2 2 2 2 2 2 1 2 3
9 9 9 9 8 8 9 10 10 10 9 9 11 11 10 9 9 9 9 10 10 9 9 10 8 7 4 3 2 0 0 2 2 2 2 2 2 3
8 7 7 9 7 7 9 10 10 10 8 7 7 7 6 6 6 7 9 9 11 10 8 8 7 6 5 4 3 1 -0 1 2 2 2 2 2 3
8 8 6 8 7 7 10 11 12 11 10 10 9 9 7 7 6 8 8 9 9 9 7 7 7 7 7 6 6 5 5 2 2 2 3 3 2 2
8 9 8 7 7 6 6 10 11 9 9 9 10 9 9 8 8 8 7 7 8 7 5 6 7 7 6 5 6 5 4 4 3 2 3 3 2 2
9 8 8 5 5 6 6 7 7 8 13 12 12 11 10 9 9 8 7 7 6 5 4 5 7 7 8 7 6 4 3 6 4 3 4 4 4 3
9 8 6 5 5 6 5 5 8 10 13 16 13 12 11 9 8 8 8 7 6 5 4 4 6 6 7 6 6 6 6 4 4 3 4 5 5 5
8 8 9 8 10 9 9 7 8 9 10 13 14 12 11 11 11 9 10 8 8 7 4 4 5 5 8 7 6 6 6 6 4 4 4 5 5 5
12 11 11 11 10 9 10 9 9 10 11 14 14 14 12 11 10 9 9 9 10 9 7 5 4 5 6 6 9 7 8 8 5 4 5 5 5 5
8 11 14 15 13 10 11 11 12 11 11 12 14 13 13 13 11 10 9 9 10 9 9 7 7 6 5 6 5 7 10 9 8 6 5 7 6 5
13 13 14 14 13 10 10 10 12 12 12 12 14 15 14 13 13 11 10 10 10 10 9 8 8 10 10 11 6 4 10 8 6 8 8 8 8 6
11 11 11 11 10 9 9 10 12 14 13 13 15 17 17 14 15 13 12 14 12 10 9 9 9 9 11 13 9 8 4 10 9 7 10 10 7 6
9 9 9 9 9 8 9 10 13 15 16 18 17 16 16 14 15 13 14 13 13 11 11 11 9 7 6 8 10 8 10 5 6 6 7 10 11 11
8 7 7 7 7 7 6 9 11 13 14 16 16 17 18 17 16 16 15 16 12 12 12 11 9 8 6 6 8 10 10 11 7 6 5 6 8 12
6 6 6 6 7 8 7 8 8 10 11 13 14 16 20 16 16 15 15 13 13 12 12 13 11 9 7 8 8 7 10 10 9 10 11 6 6 6

GFSNE_con_lsi_024.txt.gz
Lid_Strength_Index
9 10 10 10 10 10 10 11 12 16 14 12 10 7 7 7 6 6 7 4 4 4 4 3 3 3 3 3 2 2 2 1 2 2 4 4 4 4
9 9 10 9 9 9 11 10 10 11 13 11 10 9 8 7 6 7 7 5 5 4 4 3 3 3 3 3 3 2 2 2 1 2 2 3 3 4
9 9 9 9 10 10 10 10 11 10 12 11 10 9 10 10 8 8 7 8 7 5 4 4 4 3 3 3 3 3 3 2 2 2 2 2 2 3
10 9 9 8 10 10 11 11 11 11 11 12 11 11 10 10 10 10 8 6 7 5 4 4 4 4 3 3 3 3 3 2 2 3 2 2 2 2
9 9 9 10 11 11 11 11 11 9 10 11 11 10 10 10 10 9 9 9 6 5 5 5 4 4 4 4 3 3 2 2 2 2 2 3 3 2
9 10 10 10 10 11 11 11 10 11 10 11 11 10 11 10 10 11 10 8 9 7 6 6 5 5 5 5 4 4 2 2 2 2 3 3 3 2
10 9 9 8 6 9 10 10 10 11 11 11 11 11 11 11 11 10 10 10 9 9 9 9 9 8 8 6 5 5 3 3 3 3 2 3 3 2
9 9 9 7 6 6 6 6 8 10 11 12 11 12 12 12 11 11 11 11 12 9 10 10 9 9 9 8 5 4 4 4 3 3 3 3 3 3
9 9 9 7 8 9 8 8 8 8 8 11 12 12 12 11 11 11 10 11 11 9 10 11 10 10 9 7 5 5 4 3 3 3 3 4 3 3
9 9 9 9 9 9 9 9 9 9 9 9 11 11 10 9 9 8 8 8 9 9 9 11 10 10 8 7 4 3 2 2 2 3 4 4 3 3
8 8 8 9 8 6 8 9 10 10 8 7 7 7 7 6 6 7 9 10 11 10 8 9 10 9 8 7 6 2 1 1 1 3 3 4 3 3
8 8 7 8 6 6 9 10 11 10 10 9 9 9 8 8 6 8 8 10 10 11 9 8 9 9 10 7 6 6 4 2 2 2 2 3 3 3
8 9 9 6 6 6 5 9 10 9 9 9 9 9 9 9 8 8 8 9 10 10 7 6 7 8 8 8 6 6 5 2 3 3 2 3 3 2
8 8 9 6 5 5 6 6 5 7 11 12 12 11 11 10 9 8 8 8 8 8 7 6 6 8 9 9 8 6 4 3 3 3 3 3 4 2
8 8 7 6 5 6 5 5 7 9 12 16 12 12 11 10 9 8 8 8 8 7 6 4 4 6 6 7 8 6 5 5 4 3 4 4 4 5
8 7 9 8 10 10 10 8 8 9 10 12 13 12 11 11 11 9 10 9 9 9 6 6 5 5 6 6 6 7 6 7 5 4 4 4 4 5
9 11 12 12 10 10 10 9 10 10 12 14 14 13 12 11 11 10 10 10 13 11 10 7 5 4 6 6 9 7 7 7 6 5 4 5 5 4
9 11 11 11 11 10 12 11 12 12 11 12 14 13 13 14 12 11 10 11 11 11 10 9 9 9 7 7 5 7 8 7 6 5 5 6 6 5
8 8 9 11 11 11 11 11 11 12 12 12 13 15 15 13 13 12 12 11 11 11 10 9 9 11 11 15 8 4 6 8 8 7 7 7 6 6
7 9 10 11 11 10 10 10 10 12 13 13 14 18 20 16 15 14 13 16 12 11 11 10 10 10 10 10 11 10 4 7 10 9 9 7 6 5
7 8 9 10 10 9 9 11 12 12 13 15 15 17 20 16 16 15 15 15 15 11 12 12 10 8 7 7 12 11 9 5 6 7 6 8 9 10
7 7 7 8 8 8 9 9 11 11 11 14 16 17 20 18 18 17 18 15 13 14 12 11 10 8 7 7 9 12 8 12 8 6 5 7 9 11
5 6 6 7 7 7 7 7 8 8 9 10 12 14 19 18 16 18 18 13 13 14 13 12 11 9 9 8 8 8 9 10 11 11 12 6 5 5

GFSNE_con_lsi_030.txt.gz
Lid_Strength_Index
10 10 10 9 9 9 9 10 10 11 12 10 10 9 9 8 8 7 8 6 5 5 5 4 4 4 4 4 3 3 3 2 2 2 1 1 2 2
10 10 10 9 9 9 9 9 9 10 11 9 9 9 8 8 7 7 8 5 5 5 4 4 4 4 5 5 5 4 4 3 3 3 3 2 2 2
10 10 10 9 9 9 9 9 9 9 10 10 9 9 9 9 8 8 7 7 7 5 5 5 5 5 6 6 6 5 4 4 4 4 3 3 2 1
10 10 9 8 8 9 9 9 9 10 10 11 10 10 9 9 9 8 7 7 6 6 5 5 6 6 6 6 6 6 5 4 4 4 4 3 2 2
9 9 9 9 9 9 9 9 10 9 10 11 11 9 9 9 8 8 8 7 7 6 6 6 6 6 6 6 6 5 5 5 4 4 3 3 2 2
9 9 8 8 8 9 9 10 10 11 11 11 11 10 10 9 9 10 10 9 9 8 7 6 6 6 6 6 5 5 5 5 4 4 3 3 3 3
9 9 8 7 6 8 9 10 11 11 11 11 11 11 11 11 11 10 11 10 9 8 8 7 7 7 7 6 6 6 5 5 5 4 4 3 3 3
10 9 9 6 6 5 5 7 9 11 11 11 11 12 11 11 10 11 11 11 11 7 8 8 7 7 7 6 6 5 5 5 5 4 4 4 3 3
9 9 9 8 7 8 6 6 7 7 7 10 11 11 11 10 10 10 10 10 10 8 8 9 7 8 7 6 6 5 4 4 4 4 4 3 3 3
9 9 9 9 9 9 9 10 10 9 9 9 10 10 9 9 9 8 9 8 8 8 8 10 8 8 7 7 6 5 4 4 4 5 5 5 5 5
8 8 8 9 8 6 9 10 10 9 7 6 6 6 6 6 6 8 10 10 11 10 8 9 8 8 7 7 6 5 4 5 4 4 5 5 5 5
9 8 6 8 7 6 8 10 11 9 9 9 9 8 7 7 6 7 8 11 11 11 8 9 9 9 9 7 7 5 5 5 4 4 4 4 4 5
8 8 8 6 6 6 6 9 10 9 9 9 9 8 8 8 8 8 8 9 10 10 8 8 9 9 9 8 7 6 5 5 4 3 3 3 2 3
8 8 8 6 6 5 6 6 7 8 9 10 10 10 9 9 8 8 7 7 7 8 7 7 9 9 8 8 8 6 5 3 3 3 3 2 2 2
8 8 7 6 5 6 5 5 6 8 10 12 11 10 10 9 8 8 7 7 7 7 6 6 7 7 8 7 7 6 6 4 3 3 3 3 3 3
7 7 8 8 7 6 6 5 6 7 9 10 11 11 11 11 10 9 9 9 9 9 8 6 7 7 8 7 6 5 5 6 4 4 3 3 3 4
10 8 8 8 8 8 7 7 7 8 10 11 12 11 11 11 10 10 10 9 11 11 10 8 7 7 7 7 6 5 5 5 4 4 4 4 4 4
8 8 8 8 8 8 8 8 7 8 9 10 11 11 11 11 11 10 10 10 11 10 10 9 9 9 8 8 4 5 5 5 5 5 5 5 5 5
7 7 7 8 8 8 7 7 8 8 8 9 9 11 12 12 12 11 11 11 11 10 10 9 10 11 12 11 7 5 6 5 6 6 6 6 6 5
6 6 6 6 7 7 7 7 7 8 9 10 11 12 13 12 13 12 11 13 12 11 10 9 10 11 11 10 9 8 5 6 6 6 6 5 5 5
6 6 5 6 6 6 6 6 6 8 9 12 10 12 14 13 13 12 12 15 14 10 10 11 10 9 8 8 9 9 6 5 5 5 6 6 7 7
5 5 5 5 5 5 6 6 7 8 9 11 11 11 13 13 12 13 14 13 11 11 11 10 9 9 8 8 8 8 7 7 6 6 5 5 7 8
12 8 5 5 5 5 6 6 7 8 8 9 10 11 13 12 12 12 13 13 12 11 11 11 10 10 10 9 8 8 8 8 7 8 7 6 5 5

GFSNE_con_lsi_033.txt.gz
Lid_Strength_Index
5 5 6 6 6 5 5 5 6 9 8 6 5 3 2 3 4 4 4 5 5 4 4 4 4 3 3 3 3 3 2 2 2 2 2 1 1 1
5 5 6 6 6 4 4 5 5 6 7 4 3 3 3 4 4 4 4 5 5 5 5 4 4 4 3 3 3 3 3 3 3 3 2 2 2 2
5 6 6 6 6 4 4 4 5 4 6 4 4 4 5 5 4 4 5 5 4 4 5 5 4 4 4 4 4 4 4 4 4 4 3 3 3 3
6 6 6 6 4 4 4 4 4 4 5 6 5 5 6 5 5 5 5 5 4 5 5 5 5 5 5 5 5 5 5 5 5 5 5 4 4 3
6 6 6 4 4 4 4 4 4 5 5 6 6 6 6 5 6 5 5 5 5 5 5 5 5 5 5 5 5 5 5 5 5 5 5 5 4 4
5 5 4 4 4 4 4 4 4 5 6 6 7 7 6 5 6 7 7 5 6 5 5 5 5 5 5 5 5 5 5 5 5 5 5 5 4 4
5 5 4 4 5 4 4 4 5 5 6 7 7 7 7 7 8 7 7 6 5 5 5 5 5 4 4 4 4 5 5 5 5 4 4 4 4 4
5 4 4 5 5 6 6 5 5 5 6 7 7 8 7 7 7 7 7 8 8 5 6 6 5 5 4 4 4 5 5 5 4 4 4 4 4 4
5 4 5 6 6 4 5 5 6 7 7 6 7 7 7 7 7 7 7 7 7 6 6 7 5 5 4 4 4 4 5 4 4 4 4 4 5 4
4 4 4 4 4 4 5 5 5 5 6 6 6 5 6 6 6 6 6 6 6 6 6 8 5 5 4 4 4 4 4 4 4 5 5 5 5 5
5 5 5 4 4 6 6 6 6 6 6 6 6 6 6 6 5 5 7 7 8 7 6 7 6 6 5 4 3 4 4 5 5 5 5 5 5 5
5 5 6 4 5 6 5 6 7 6 6 6 6 6 6 5 5 5 6 7 8 8 5 7 7 7 7 4 4 3 3 4 5 4 5 4 5 4
6 5 4 5 5 5 5 5 5 5 6 6 6 6 5 5 5 4 5 6 7 7 5 7 7 7 7 7 5 4 3 3 3 2 3 3 4 4
5 4 3 5 5 4 4 5 5 6 5 5 5 6 5 5 5 4 4 5 5 6 5 5 7 7 7 7 7 4 3 2 1 2 2 2 2 3
3 3 4 5 5 5 5 5 5 5 5 6 6 5 5 4 4 5 5 5 5 5 5 4 5 6 7 7 7 5 4 2 0 2 2 2 2 2
4 4 4 5 5 4 5 4 4 4 4 5 5 4 4 5 5 5 6 6 6 6 5 5 5 5 7 6 5 5 3 5 2 2 3 3 2 3
5 4 4 5 5 5 5 5 4 4 4 4 5 5 5 5 5 5 6 6 7 7 6 5 5 5 6 6 6 4 3 4 3 3 3 4 3 4
6 6 5 5 5 5 5 5 5 4 4 5 5 5 6 6 5 5 6 7 7 7 7 6 6 7 6 5 5 4 4 5 4 3 3 5 4 4
6 6 5 4 4 5 5 5 4 3 3 5 5 5 5 5 6 6 6 7 7 7 7 6 6 7 9 9 5 5 5 5 4 4 3 4 5 4
6 5 5 4 3 5 5 5 4 3 4 5 5 5 5 5 6 6 6 7 7 7 7 6 7 7 8 8 8 5 5 5 5 4 4 3 3 5
10 10 10 7 3 3 4 4 4 3 4 4 5 5 5 5 5 5 6 8 8 8 8 7 6 7 6 6 8 6 3 5 5 5 5 4 5 4
12 11 10 9 7 2 4 4 4 4 4 5 5 5 5 5 5 6 6 6 7 7 7 6 6 6 6 7 7 6 5 4 4 5 5 5 6 6
13 12 11 11 9 9 6 3 3 3 3 4 5 6 5 6 5 5 5 6 6 7 7 7 7 6 7 7 7 5 6 5 4 5 5 6 5 5

GFSNE_con_lsi_036.txt.gz
Lid_Strength_Index
3 4 5 5 5 5 5 5 6 8 7 4 4 3 2 2 1 2 2 2 4 4 4 4 3 3 3 2 2 2 2 2 2 2 2 2 2 2
4 5 5 5 5 5 5 5 5 5 7 4 4 3 2 2 2 2 2 3 3 3 4 4 4 4 3 3 3 3 3 3 3 2 2 2 2 2
5 5 5 5 5 5 5 5 4 4 6 5 3 2 2 2 2 2 3 3 3 3 4 4 4 4 4 4 4 3 3 3 3 3 3 2 2 1
5 5 6 6 5 5 5 4 4 3 5 6 4 3 2 2 3 3 4 4 3 3 4 4 4 5 4 4 4 4 4 4 4 4 3 4 3 3
6 6 6 6 6 5 4 4 3 4 4 4 4 3 3 3 4 4 4 4 3 3 3 3 4 4 4 4 4 4 4 4 4 4 4 5 5 4
6 6 6 6 5 4 3 3 3 4 3 4 4 4 4 3 4 5 5 4 4 4 3 3 4 4 4 4 4 4 4 4 4 4 4 5 5 5
6 6 5 4 4 4 3 3 3 3 4 4 4 4 5 5 5 5 6 5 4 3 3 3 3 3 3 3 3 3 4 4 4 4 4 4 4 5
7 5 4 4 4 5 5 5 4 3 3 4 4 5 5 5 4 5 6 6 7 3 4 4 3 4 3 2 3 3 4 4 4 4 4 4 4 4
6 5 4 4 4 3 5 6 6 5 5 3 4 4 5 4 4 5 5 5 5 4 4 5 3 4 3 3 2 3 3 4 4 4 4 4 4 4
5 5 4 3 3 3 3 2 2 2 3 4 4 4 3 3 4 5 4 4 4 3 3 6 4 4 3 3 3 2 3 4 4 4 4 4 4 4
5 4 4 3 4 4 3 2 2 2 3 3 4 5 5 6 6 5 5 6 6 5 3 4 4 5 4 4 2 2 3 3 3 4 4 5 4 4
5 4 6 5 5 5 3 2 3 2 2 3 4 5 5 4 5 4 4 6 6 6 4 5 5 6 6 4 3 3 2 3 3 3 4 4 4 4
5 5 3 5 5 4 4 2 2 1 3 3 3 3 3 3 3 3 3 4 5 5 4 4 5 6 6 6 4 3 2 2 2 2 2 3 3 4
6 4 3 4 4 4 4 4 4 4 2 3 4 4 4 4 3 2 2 2 3 4 3 3 5 6 6 7 7 4 3 2 1 1 -1 0 1 2
5 5 5 5 4 4 4 4 4 3 3 4 4 3 3 3 2 2 3 3 3 3 4 3 4 4 6 6 7 6 4 3 1 1 1 2 3 2
7 5 5 6 5 4 4 3 2 2 3 3 3 2 2 2 3 3 4 4 4 4 3 3 4 4 5 5 6 5 4 3 2 2 2 2 3 3
9 7 6 5 5 4 3 2 3 2 3 2 2 2 3 3 3 3 4 4 5 5 5 4 3 3 4 5 6 5 3 3 3 3 3 3 3 4
8 6 6 5 5 4 3 3 3 3 2 2 2 2 3 4 4 4 4 4 5 5 5 4 4 5 4 4 3 5 4 4 4 3 3 4 4 4
9 9 8 7 6 5 3 3 3 2 2 2 2 2 3 3 4 4 4 5 5 5 5 4 4 5 7 8 4 5 4 5 4 4 3 3 4 4
10 10 10 9 8 7 7 3 3 2 2 2 2 2 2 3 4 4 4 5 5 5 5 5 4 5 6 7 7 5 4 4 5 5 4 3 2 4
11 11 10 10 9 8 6 7 2 3 2 3 2 2 3 3 4 4 4 5 5 5 6 5 4 6 5 4 6 5 3 5 4 5 5 4 4 4
12 12 11 11 10 9 8 8 5 3 3 2 2 2 3 3 3 4 4 4 5 5 5 4 4 5 4 6 6 5 4 2 4 5 5 5 6 6
13 12 12 11 11 10 10 9 8 7 2 2 2 2 3 3 3 3 4 4 5 5 5 5 5 5 5 5 6 5 5 4 3 4 5 6 6 6

GFSNE_con_lsi_039.txt.gz
Lid_Strength_Index
4 3 4 4 4 5 5 6 7 9 8 6 6 2 3 2 2 2 3 2 2 2 3 3 3 3 3 2 2 2 2 2 1 1 1 1 1 1
3 4 4 4 5 5 6 5 6 7 9 6 5 3 3 3 2 2 2 1 2 2 2 3 4 4 3 3 3 3 2 2 2 2 2 1 1 1
5 5 5 5 5 5 5 5 6 7 8 6 4 3 3 3 3 2 2 2 2 2 2 3 3 4 4 4 3 3 3 3 3 2 2 2 1 1
7 6 5 5 6 5 5 6 6 5 6 6 4 4 3 2 2 2 3 2 2 2 2 3 3 3 4 3 4 4 3 3 3 3 3 3 2 2
7 6 6 5 6 6 5 5 5 5 4 5 5 3 3 2 2 2 2 2 3 2 2 3 3 3 3 3 3 3 3 3 3 3 3 3 3 3
6 6 6 5 6 5 5 4 4 4 4 4 4 3 3 2 2 3 4 3 4 4 3 3 2 2 2 2 2 3 3 3 3 3 3 3 3 4
6 5 5 5 6 5 5 3 3 4 3 4 4 3 3 3 3 3 4 4 4 3 3 3 3 2 2 2 2 1 2 3 3 3 3 3 3 3
7 5 5 5 5 7 6 6 4 3 3 3 3 3 3 2 3 3 4 5 7 3 4 4 3 3 2 2 2 3 3 3 3 3 3 3 3 3
7 6 5 5 6 4 5 7 6 5 5 3 2 2 2 2 3 4 4 5 5 4 4 5 3 3 2 2 2 2 2 2 3 3 3 3 3 4
5 6 6 5 5 4 3 3 2 2 2 3 3 1 1 1 2 3 4 5 4 3 3 5 3 4 3 2 2 2 2 2 3 2 3 3 4 4
6 6 6 6 6 5 4 3 2 2 1 2 2 2 4 5 5 3 5 6 6 5 3 4 4 4 3 3 2 2 3 2 2 2 3 3 3 4
7 6 7 6 7 6 4 3 4 2 1 1 1 3 4 3 5 4 4 6 5 5 3 5 5 5 6 3 3 3 2 2 3 2 2 3 3 3
9 8 7 7 6 6 5 4 3 2 2 2 1 1 2 2 2 3 3 4 4 4 3 4 5 5 5 6 4 3 3 2 2 2 2 2 2 3
11 9 8 8 8 7 6 5 4 5 3 3 3 2 2 2 1 2 2 2 1 2 2 3 4 5 5 6 6 4 3 3 2 2 1 1 1 1
10 9 9 9 8 7 5 5 5 4 4 4 3 2 1 1 1 1 1 1 1 1 3 3 3 4 4 6 6 5 5 4 2 1 1 2 2 3
11 10 10 9 8 7 6 5 4 5 4 3 3 2 1 2 2 1 2 3 3 3 2 2 3 3 5 5 5 5 5 5 2 2 3 3 2 3
12 10 8 7 7 6 5 4 4 3 4 3 3 2 2 2 2 2 2 3 4 4 4 3 2 2 3 4 5 5 4 4 3 4 4 4 3 4
11 10 8 8 8 8 7 6 5 5 3 3 3 3 2 2 2 2 3 3 4 4 4 4 3 4 4 3 3 4 4 4 4 4 3 4 4 5
10 10 9 9 10 9 8 8 7 6 6 3 3 2 2 2 2 3 3 4 4 4 4 3 4 5 7 7 4 5 5 4 4 4 4 4 4 5
10 10 10 10 10 10 9 9 8 7 7 3 3 2 2 2 3 3 3 4 4 4 4 4 5 5 6 6 7 5 4 4 5 5 5 4 3 4
11 11 11 11 11 11 10 9 9 8 7 4 2 2 2 2 3 2 3 3 4 4 5 5 4 5 4 4 6 5 4 4 4 5 5 5 5 5
11 12 11 12 11 11 10 9 9 9 9 8 3 2 2 2 2 2 3 4 4 4 5 4 4 4 5 5 6 5 4 3 4 5 5 6 6 7
12 12 12 12 11 11 11 10 10 10 10 8 7 5 2 2 2 2 2 3 4 5 5 5 5 4 5 5 5 5 5 4 4 4 5 6 6 5

GFSNE_con_lsi_042.txt.gz
Lid_Strength_Index
6 6 5 5 5 6 7 8 10 12 11 9 8 7 6 6 6 7 7 3 3 4 4 3 2 2 2 3 2 2 2 1 1 1 1 1 1 -0
6 5 5 5 6 7 7 7 8 9 12 9 9 8 7 6 5 6 6 3 3 2 2 1 1 2 3 3 3 3 2 2 2 2 2 1 1 1
6 6 6 5 6 7 7 7 8 8 11 10 8 8 8 7 6 6 5 5 5 2 1 1 1 2 3 3 3 3 2 3 3 2 2 2 1 1
6 6 6 6 6 7 8 9 8 8 9 11 9 8 8 7 6 6 4 4 5 2 1 1 1 2 2 2 2 2 2 3 3 3 3 2 2 2
6 6 6 6 7 8 8 8 8 6 8 9 9 8 7 7 7 6 5 5 3 1 1 1 1 2 2 2 2 1 2 2 2 3 3 3 2 2
6 7 6 6 7 7 7 8 7 7 7 8 8 8 7 6 6 7 7 6 6 3 3 3 2 2 1 1 1 1 1 1 1 2 2 2 2 3
6 7 6 6 6 7 6 7 8 8 8 8 8 7 7 7 7 6 7 7 6 6 6 6 6 6 5 3 2 0 1 1 1 1 2 2 2 2
8 7 7 7 7 7 7 7 7 7 8 7 6 6 6 5 5 6 7 8 9 6 7 7 6 6 5 5 2 2 2 2 2 2 2 2 2 2
9 8 8 6 7 7 7 8 8 8 6 5 6 5 5 4 5 5 6 7 8 7 7 8 7 6 5 3 2 1 2 1 2 2 2 2 2 2
8 8 8 9 8 8 8 9 8 7 5 5 5 4 3 3 4 3 4 6 7 7 6 8 6 7 6 5 2 1 1 2 2 2 2 2 2 2
9 9 9 9 9 8 9 10 9 7 4 4 3 2 3 3 3 4 6 8 10 8 6 7 7 7 7 7 6 2 2 2 2 2 2 2 2 2
11 10 10 10 10 10 12 12 12 9 8 6 4 4 4 4 4 3 4 6 8 9 5 6 7 8 10 7 6 6 6 3 2 2 2 2 2 4
14 13 13 11 11 11 10 12 11 9 8 6 6 5 4 4 5 4 4 5 7 7 5 4 7 7 9 8 8 7 6 6 5 4 2 2 2 2
15 14 13 12 12 11 11 9 8 8 7 7 7 6 5 4 3 4 3 3 4 4 3 4 6 7 9 9 9 8 7 6 6 6 4 3 2 2
14 14 13 13 12 11 9 7 8 7 7 8 7 6 5 3 2 2 2 3 3 3 2 3 6 6 8 8 8 8 7 6 6 6 7 5 5 4
15 15 15 13 12 11 10 9 8 7 7 8 6 5 4 3 3 2 3 3 4 5 3 3 4 5 7 7 7 7 7 7 6 7 7 5 4 4
16 15 14 13 13 12 11 10 9 9 10 8 9 7 4 4 3 3 3 4 5 7 8 5 4 4 5 6 7 7 6 6 7 6 6 6 4 4
16 15 17 15 13 13 12 12 11 11 11 10 9 8 4 4 4 3 3 4 5 6 6 5 6 6 6 6 4 6 7 7 8 5 5 5 6 5
16 16 17 15 13 12 12 12 12 11 10 11 9 8 4 3 3 4 4 4 5 6 5 5 5 7 11 12 7 4 8 8 6 6 6 6 5 6
14 14 15 14 13 13 13 13 12 12 11 11 10 9 5 3 3 4 4 5 6 5 5 5 6 6 9 11 12 10 4 9 8 9 7 6 4 4
14 14 14 14 14 13 13 13 13 13 12 12 11 9 10 3 4 4 4 5 5 5 6 6 6 6 6 8 13 11 6 3 6 8 8 8 6 7
15 14 14 14 14 14 14 14 14 13 13 12 11 11 10 9 4 6 6 5 4 5 5 5 6 6 7 8 9 12 7 6 4 4 5 6 9 11
16 15 15 15 14 14 14 15 14 14 13 12 12 11 11 11 9 4 5 4 4 5 5 7 6 6 7 7 8 10 6 9 6 7 9 5 5 5

GFSNE_con_lsi_045.txt.gz
Lid_Strength_Index
6 6 7 6 6 6 7 7 10 13 12 10 9 8 8 8 7 6 8 5 5 4 4 3 3 2 2 2 2 2 1 2 2 1 1 1 1 1
6 7 6 6 6 5 6 7 8 10 12 11 10 9 8 7 6 7 8 5 4 4 3 3 2 1 1 1 1 1 2 2 2 2 2 1 1 1
7 8 6 7 7 6 6 7 8 9 10 11 10 9 10 9 8 7 7 7 6 3 2 2 1 0 0 1 1 2 2 2 2 2 2 1 1 1
7 7 7 6 6 7 8 8 9 9 9 10 11 10 9 9 9 9 7 6 6 4 2 1 1 1 1 1 1 1 2 2 2 2 1 1 1 1
7 7 7 7 8 8 9 9 9 7 8 9 8 10 9 9 9 9 8 8 6 3 2 1 1 0 0 1 1 1 1 1 1 1 1 2 2 2
6 7 7 7 7 9 9 9 8 8 8 8 8 8 9 8 8 8 7 7 6 4 2 3 2 1 0 0 0 0 0 0 0 0 1 2 2 2
7 7 7 7 7 8 8 8 10 10 10 10 9 10 10 11 9 7 7 5 6 5 7 7 6 6 5 3 2 1 1 1 1 0 0 1 2 2
8 8 7 8 8 8 8 8 8 9 10 10 10 10 9 9 7 7 6 6 7 6 7 7 6 7 6 5 3 1 1 1 1 1 1 1 2 2
9 9 8 7 9 9 10 10 10 9 9 10 10 9 8 7 7 6 6 5 5 5 5 6 6 7 6 4 1 1 1 1 1 2 1 2 2 2
9 9 11 11 11 11 12 13 12 11 10 9 9 8 7 6 5 4 4 4 4 4 5 6 8 7 6 5 2 1 1 1 1 1 1 2 2 2
11 12 12 13 11 11 13 14 15 14 12 10 9 8 6 5 4 4 6 6 6 6 6 7 8 8 7 7 6 2 2 2 2 2 2 2 2 2
15 14 13 13 12 12 14 15 15 14 13 13 11 9 7 6 4 4 5 5 6 7 6 6 7 8 10 7 6 6 6 4 3 2 2 2 2 3
16 16 16 13 13 13 12 14 14 12 11 11 10 9 8 7 6 5 5 5 5 7 4 4 7 8 9 9 8 6 7 7 7 5 3 3 2 2
17 16 16 14 14 13 13 12 12 12 11 10 9 8 8 7 7 5 5 5 3 3 3 4 6 8 9 9 9 7 8 7 7 6 6 4 3 3
17 16 16 15 14 14 13 13 13 13 12 12 11 10 9 8 6 5 3 4 4 3 2 3 6 5 6 8 9 8 9 8 7 9 8 9 6 4
17 18 17 16 16 15 14 13 13 12 12 12 12 11 10 9 8 4 4 4 6 5 3 3 4 5 6 7 7 8 8 8 7 8 8 8 4 5
20 20 18 17 16 16 15 14 13 13 13 12 12 12 11 10 8 4 3 3 5 5 5 4 4 4 5 5 8 8 7 8 7 7 8 8 5 5
19 20 21 22 19 17 16 15 14 14 13 12 13 12 13 11 10 4 4 4 5 6 6 6 7 6 6 5 4 7 9 8 8 7 7 8 6 5
20 19 23 23 20 16 15 15 15 14 13 13 13 13 13 11 11 8 4 4 5 7 7 7 6 8 9 11 7 4 8 8 8 9 8 7 7 6
17 18 20 20 17 15 15 16 15 15 15 15 14 14 13 12 12 11 4 4 5 5 6 5 6 7 8 11 13 10 4 8 11 11 9 6 4 4
18 17 18 18 16 16 20 20 21 17 16 16 15 14 13 13 13 11 6 5 6 5 5 6 5 6 6 8 14 14 10 3 6 9 9 8 7 8
19 18 17 17 19 19 22 22 18 17 17 16 15 15 14 13 13 12 11 6 5 6 5 4 5 5 7 8 11 16 10 8 5 4 4 6 9 11
20 18 20 23 23 22 17 19 17 17 17 16 16 15 14 14 13 12 12 9 4 5 5 5 6 5 6 7 10 12 9 9 6 7 7 5 5 5

GFSNE_con_lsi_048.txt.gz
Lid_Strength_Index
6 6 6 6 6 8 7 9 10 11 12 11 10 8 8 9 8 6 6 4 4 5 4 4 3 4 3 2 1 2 1 1 1 1 1 0 0 0
6 7 7 6 7 7 7 6 8 9 11 11 10 10 9 8 8 7 7 5 4 5 5 4 3 2 1 1 0 1 1 1 1 1 1 1 0 1
7 7 7 7 6 6 6 7 8 8 9 8 10 10 11 10 9 8 7 8 7 4 5 4 3 2 1 0 -0 -0 0 1 1 1 1 1 0 0
7 7 7 5 7 6 7 8 8 9 9 11 11 11 11 10 10 10 8 7 7 6 3 3 2 2 1 0 -0 -0 0 0 1 1 1 1 0 0
7 6 6 6 7 8 8 9 10 9 10 11 10 10 11 10 10 9 9 8 7 5 4 2 1 1 1 1 0 -0 -0 0 0 0 0 0 1 1
6 6 7 7 7 8 8 10 9 11 11 11 10 10 11 9 11 9 9 10 8 6 4 2 1 0 -0 -0 -0 -0 -0 -0 -0 -0 0 0 1 1
7 7 7 7 7 8 9 10 11 11 12 12 12 11 12 12 13 11 10 8 8 7 6 4 3 3 3 1 1 -0 -0 -0 -0 0 1 1 1 1
8 8 8 8 8 9 10 11 12 14 14 15 14 13 12 12 11 11 10 10 10 8 7 6 5 6 5 4 3 2 1 0 0 1 1 1 1 1
9 9 8 9 11 12 12 12 13 12 12 14 14 14 13 12 11 10 9 8 8 5 7 6 7 5 3 3 2 1 1 0 0 0 1 1 1 2
10 11 12 13 13 14 15 16 15 15 15 14 15 14 13 12 12 11 10 9 7 4 5 6 5 5 3 5 2 1 1 1 1 1 1 1 2 2
13 13 14 14 13 13 15 16 16 15 13 12 11 10 10 9 9 9 10 9 9 8 6 5 5 6 7 6 5 2 1 2 2 2 2 2 2 2
16 15 14 15 14 14 16 17 17 16 15 14 13 12 11 10 8 8 8 8 8 8 7 7 8 7 7 6 6 6 7 4 3 2 2 3 3 4
17 16 16 15 15 14 14 16 15 15 15 15 15 14 13 12 10 8 7 7 7 7 6 5 8 7 6 7 7 7 6 7 7 6 4 3 3 3
17 17 17 16 15 14 15 14 15 15 16 17 16 16 15 14 12 10 9 7 4 5 3 4 6 6 6 9 9 8 8 8 8 7 8 5 4 4
17 17 16 16 15 15 15 15 16 16 17 18 17 16 14 13 12 10 9 7 4 3 3 3 4 5 6 8 9 8 8 8 8 9 10 10 10 8
17 17 17 16 17 16 16 15 16 16 17 18 17 15 13 13 13 11 10 9 5 5 3 3 4 4 7 7 7 8 8 9 9 9 9 11 10 7
19 20 19 18 18 17 17 17 17 17 18 17 16 15 15 14 13 11 11 10 6 5 5 4 3 4 5 5 8 8 8 9 9 8 8 12 11 8
18 20 22 23 20 18 19 19 18 19 17 16 16 16 15 15 14 13 12 12 7 5 5 4 5 5 5 6 4 7 9 9 8 7 7 12 11 7
19 20 23 23 21 19 19 19 19 18 16 16 17 17 16 15 14 14 13 12 8 5 6 6 5 7 10 13 7 3 8 9 9 10 8 10 9 6
18 19 20 20 19 20 19 19 18 18 18 17 18 17 17 16 15 15 14 13 12 5 5 6 7 6 9 11 13 10 4 9 11 11 10 8 5 4
19 19 19 20 20 20 22 23 25 22 21 24 20 18 19 16 16 15 14 13 12 5 5 6 5 5 6 8 13 14 11 5 7 9 10 8 7 7
19 19 20 20 21 21 23 26 25 25 23 21 20 21 19 16 16 16 14 13 12 10 5 5 4 5 7 8 11 17 11 11 5 4 5 6 9 11
21 21 21 23 23 24 21 24 24 20 22 20 19 18 17 17 16 15 14 13 11 11 6 6 5 6 6 7 9 12 11 9 8 8 8 4 4 5

GFSNE_con_lsi_051.txt.gz
Lid_Strength_Index
5 5 6 6 6 8 7 8 9 12 11 8 11 10 9 9 8 9 8 6 4 4 4 4 3 2 2 2 2 2 2 1 0 0 -0 -0 -0 -1
6 6 7 7 7 7 7 6 7 8 10 9 9 10 9 9 8 9 9 6 5 5 5 5 4 3 3 2 1 1 1 -0 -0 -0 -0 -0 -0 -0
6 7 7 6 7 6 7 7 7 8 10 8 9 10 11 11 10 10 9 9 8 6 5 5 5 4 3 2 1 0 -1 -1 -0 -0 -0 -0 -1 -1
7 7 7 7 7 6 7 8 8 8 10 11 11 12 12 11 11 11 9 8 9 7 6 5 4 4 4 2 1 -0 -0 -1 -1 -1 -0 -0 -0 -0
7 8 7 7 7 9 8 9 9 9 10 12 11 12 12 12 12 11 11 10 9 6 6 6 5 4 3 2 1 0 -0 -1 -0 -0 -0 -0 0 -0
7 7 7 7 7 8 9 9 10 10 10 11 11 12 13 12 13 13 12 11 11 8 7 7 5 4 2 1 0 -0 -0 -0 -0 -0 -0 0 -0 -0
8 7 8 6 7 8 9 10 12 11 12 13 14 15 15 15 15 14 13 12 11 10 9 9 8 6 4 2 0 -0 0 -0 0 -0 -0 -0 0 0
8 7 7 7 8 10 10 11 13 15 16 16 16 17 17 16 15 15 14 14 15 11 12 10 8 8 6 5 2 1 1 1 0 0 -0 0 0 0
8 8 8 9 11 12 13 13 14 13 13 16 18 17 17 17 16 16 15 15 15 12 12 13 8 8 6 5 3 2 2 1 1 1 1 1 0 1
9 9 11 12 13 14 15 16 16 16 16 16 17 16 16 15 15 14 13 13 12 11 10 12 8 8 5 6 3 2 1 1 1 1 1 1 1 1
12 12 13 14 13 14 16 17 16 16 14 14 14 13 12 12 11 12 13 13 14 13 10 11 8 7 10 9 7 3 2 2 1 1 2 2 2 2
14 14 13 14 15 15 16 17 17 17 17 16 16 15 14 13 12 12 12 14 13 14 9 10 8 8 8 9 8 6 4 2 2 2 2 2 2 5
15 17 16 15 15 15 14 16 17 17 17 17 17 17 16 15 15 14 14 14 14 13 9 7 7 7 7 7 8 6 5 6 6 5 3 3 3 3
16 17 17 16 15 15 16 16 17 17 18 19 18 18 17 17 16 15 14 13 11 10 9 8 7 6 7 8 8 6 6 7 8 7 8 5 4 3
16 17 17 16 16 16 17 17 17 18 19 20 19 19 18 16 16 15 14 12 11 10 8 5 5 5 5 7 7 7 7 7 8 9 10 10 9 11
18 17 18 17 17 18 17 17 18 18 19 19 19 18 18 18 17 16 15 14 13 12 7 4 4 4 6 5 6 7 7 8 9 10 10 11 11 12
18 18 19 19 19 19 19 19 19 19 19 19 19 20 19 18 17 15 15 14 14 14 11 5 4 4 4 5 7 7 8 9 8 8 8 12 13 10
19 21 22 22 21 20 20 20 19 19 19 19 20 20 20 19 17 16 15 15 15 13 12 6 5 5 5 4 4 7 9 9 9 7 8 10 11 11
20 21 23 22 21 20 20 20 20 20 20 20 20 20 19 18 18 17 16 15 15 13 12 7 5 6 8 10 7 3 8 9 9 10 9 10 13 9
20 21 21 21 20 20 20 20 20 21 22 21 21 21 21 19 19 18 17 17 15 14 12 7 6 5 8 10 11 10 4 8 10 12 11 10 8 4
19 20 20 20 20 20 21 22 23 24 23 24 23 23 24 21 20 18 18 17 15 13 12 11 5 5 5 7 12 13 10 4 7 9 9 10 10 6
19 19 19 20 21 21 23 25 25 24 24 24 25 26 25 22 20 19 18 18 15 14 12 9 7 4 6 7 10 16 10 10 6 4 4 6 9 11
20 20 21 22 23 24 22 23 23 25 25 23 22 21 25 20 19 18 17 16 14 13 11 10 7 5 5 6 8 10 10 10 8 6 7 4 4 4

GFSNE_con_lsi_054.txt.gz
Lid_Strength_Index
4 5 5 6 6 7 8 7 8 10 10 9 8 8 8 8 8 7 8 7 6 6 5 5 4 3 3 2 2 2 1 1 1 1 0 0 -1 -1
5 6 6 7 7 8 7 8 7 8 9 7 8 9 8 8 8 8 8 7 6 6 6 6 5 4 4 3 2 2 1 1 1 0 -1 -1 -1 -2
6 6 7 7 8 7 6 7 7 7 9 8 8 9 9 9 9 9 9 9 9 7 7 6 6 6 5 4 4 3 2 1 0 -0 -1 -2 -2 -2
7 7 7 7 8 8 7 7 8 8 9 10 10 10 11 10 10 11 9 8 9 8 7 7 6 6 5 5 5 4 3 2 1 -0 -1 -1 -1 -1
7 7 8 7 8 8 8 8 8 8 9 10 11 10 11 11 11 11 11 10 10 8 7 7 7 6 6 5 4 4 3 2 1 0 -1 -1 -1 -0
7 8 8 7 8 9 9 9 9 10 10 10 11 11 13 12 13 13 13 12 12 11 9 8 8 7 6 6 5 4 3 2 1 0 0 0 1 0
8 8 7 7 8 9 9 9 10 11 11 12 13 14 15 15 15 14 15 15 14 13 12 11 10 9 9 8 7 6 5 3 1 0 -0 1 1 1
9 8 8 9 10 10 9 10 11 12 13 15 15 16 17 16 15 16 16 16 17 13 13 13 11 11 10 9 8 7 5 3 2 1 1 1 1 1
9 9 9 10 11 12 12 12 13 12 13 15 17 17 17 16 16 17 16 16 15 13 13 14 11 12 10 9 8 6 4 3 2 2 2 1 1 0
9 11 11 12 12 13 13 14 15 15 15 15 16 16 16 15 15 14 14 14 13 13 11 14 12 12 10 9 7 5 3 3 2 2 1 1 1 1
12 12 12 13 12 12 14 15 16 15 14 15 15 15 15 15 14 15 16 16 17 15 12 13 12 12 10 9 6 5 4 3 2 2 2 1 1 2
14 14 13 13 13 14 15 16 16 16 17 17 17 17 16 16 15 15 16 17 17 17 12 14 13 12 12 8 8 7 5 3 2 2 1 2 2 2
15 16 15 14 14 13 14 15 17 17 18 18 18 18 17 16 16 16 15 16 17 16 13 13 13 12 10 8 7 7 5 4 3 3 3 3 2 2
15 16 15 14 14 14 16 16 17 18 18 19 19 19 19 18 17 16 15 15 14 14 13 12 13 11 10 8 8 7 6 4 5 5 4 4 3 3
16 16 15 14 15 16 16 17 18 19 20 21 20 20 19 18 17 16 15 15 14 13 12 11 11 10 9 7 7 7 6 5 5 5 5 5 4 5
17 16 17 17 17 18 18 19 19 20 20 21 20 19 19 19 18 17 17 17 17 15 12 10 10 8 7 6 6 6 6 6 5 5 5 5 5 6
18 18 19 19 19 20 20 20 20 20 21 20 20 20 20 20 19 18 18 17 18 17 15 12 10 7 5 5 6 5 5 5 5 5 5 5 6 5
19 20 22 21 21 21 21 21 21 21 20 21 21 20 21 21 20 19 18 19 18 16 15 13 12 9 6 6 4 5 5 5 5 5 5 6 6 5
20 21 22 22 22 21 21 21 21 20 20 21 21 21 21 21 21 20 20 18 18 17 15 13 12 10 8 9 6 2 4 5 5 5 5 6 7 5
20 21 22 22 21 21 21 21 21 21 22 22 21 22 22 22 22 21 19 19 18 17 16 13 12 10 7 7 6 5 3 5 5 6 6 6 6 5
20 20 21 21 21 21 21 21 22 23 23 23 23 23 23 23 22 20 19 20 19 17 16 14 12 9 8 6 6 6 5 4 5 5 6 6 6 5
20 20 20 20 21 21 22 23 23 23 23 23 23 23 23 22 21 20 20 20 18 17 15 13 10 9 8 6 6 8 7 6 5 3 4 5 6 7
20 20 21 22 22 22 22 23 24 24 23 22 23 22 23 22 20 19 19 18 17 17 15 13 11 9 8 5 5 7 8 8 6 5 4 3 4 4

GFSNE_con_lsi_057.txt.gz
Lid_Strength_Index
2 2 3 3 3 4 4 4 4 7 9 7 6 4 4 4 5 5 4 5 6 7 6 6 5 5 4 4 3 2 2 1 1 1 0 1 1 1
1 2 3 3 4 5 5 4 4 5 6 5 6 6 6 6 5 4 4 7 7 7 7 7 6 6 5 5 4 4 3 2 1 1 0 1 1 -0
1 2 1 2 4 6 6 5 6 6 6 7 7 7 5 6 5 5 5 5 5 7 8 7 7 7 6 6 5 5 4 4 3 2 1 1 0 -1
3 3 3 4 4 5 7 6 6 5 9 7 7 8 7 7 7 6 6 7 6 7 8 8 8 7 7 7 6 6 5 5 4 4 3 2 1 -1
3 4 4 5 6 6 7 6 7 9 8 10 10 8 8 8 7 7 7 7 9 9 10 9 9 8 8 8 7 6 6 6 5 5 4 3 2 -0
4 4 5 6 7 7 7 8 9 8 10 8 10 10 9 7 8 9 10 10 11 11 10 10 10 9 8 8 8 7 7 7 6 6 5 5 3 1
5 5 5 7 8 8 8 9 10 10 11 10 11 11 10 9 10 10 12 12 12 11 11 10 10 10 9 9 8 8 8 8 7 7 6 5 3 2
7 7 8 9 10 10 10 10 9 11 12 12 11 11 10 11 11 12 13 14 14 10 12 12 10 11 10 9 9 8 8 7 7 6 5 4 2 2
8 9 10 10 12 12 12 13 13 13 12 11 12 12 12 12 12 13 14 14 14 12 12 13 11 11 10 9 8 8 8 7 7 6 4 3 2 2
10 10 12 13 13 13 14 15 14 14 14 14 13 12 11 12 13 13 13 13 13 13 12 15 11 12 10 8 8 8 7 7 7 5 3 3 3 3
12 12 13 14 14 13 14 15 15 14 13 13 14 14 15 15 15 14 15 16 16 15 13 13 12 12 10 9 7 7 8 8 6 4 3 3 3 2
15 15 14 14 13 13 14 15 15 14 15 15 14 15 16 15 16 15 15 17 16 16 12 14 13 12 13 9 7 6 6 5 5 5 3 3 2 1
16 17 15 14 14 14 14 14 15 15 16 16 16 16 16 16 16 15 16 16 16 15 13 13 13 12 12 12 9 7 5 4 4 3 3 3 3 2
17 16 15 14 14 15 15 16 16 16 16 17 18 18 18 18 17 17 16 16 14 14 13 12 13 13 13 12 11 6 4 3 3 2 2 3 4 3
16 15 14 14 15 15 16 17 17 17 18 18 19 18 18 18 18 17 16 15 14 14 13 12 12 12 12 12 10 7 6 4 2 2 2 2 2 1
15 15 15 16 16 16 17 17 17 18 19 19 19 19 19 19 19 18 17 16 16 15 12 11 11 11 12 10 8 6 4 5 3 2 2 1 1 1
16 16 17 17 17 17 18 18 18 19 19 19 20 20 20 20 19 18 18 17 17 16 15 12 11 10 9 9 7 5 4 4 3 2 2 2 1 1
17 17 18 18 18 18 19 19 19 21 20 21 21 21 20 20 20 18 18 17 17 16 15 13 12 10 8 6 4 4 4 4 2 2 2 3 3 1
18 18 19 19 19 19 19 20 21 20 21 21 21 21 20 20 20 19 18 18 17 16 15 12 11 11 11 10 5 4 4 3 2 2 2 2 3 2
18 19 19 19 19 20 20 20 20 20 21 21 21 20 20 20 20 19 18 18 16 15 14 12 11 10 11 11 10 5 3 2 2 2 2 2 2 4
18 19 19 19 19 19 20 20 20 21 21 21 20 20 19 19 19 18 17 18 17 15 15 13 11 10 9 8 9 6 3 2 1 1 2 3 3 3
19 19 19 19 20 19 19 20 20 20 19 19 19 18 18 18 18 18 17 16 16 15 14 12 10 9 9 9 8 5 3 2 3 3 3 3 3 5
20 20 20 20 19 19 19 19 20 19 19 19 19 18 18 18 17 17 16 16 15 15 14 13 11 10 9 9 8 5 3 3 2 2 2 3 3 4

GFSNE_con_lsi_060.txt.gz
Lid_Strength_Index
-0 -0 0 -0 -0 0 2 3 5 7 5 3 3 3 3 2 3 3 2 4 5 6 6 6 5 5 5 5 5 4 4 4 3 3 2 2 1 1
-0 0 0 0 0 0 2 4 4 5 6 2 3 4 4 5 6 4 2 5 6 6 7 6 6 6 6 6 6 6 5 5 5 4 3 3 2 1
0 0 1 1 2 2 3 3 4 4 5 4 5 4 7 6 5 5 3 3 2 6 7 7 7 7 7 7 7 7 7 7 7 6 5 5 3 3
1 1 1 2 2 3 4 5 5 4 5 6 8 5 7 7 6 4 5 4 4 6 7 7 7 7 8 8 8 8 8 8 8 7 7 7 6 5
1 1 2 3 4 4 5 5 5 6 5 8 7 9 8 7 8 6 6 4 5 6 9 9 9 9 9 9 9 9 8 8 8 8 8 7 7 6
2 2 2 3 3 4 5 5 7 8 7 9 10 10 10 8 8 7 6 5 7 8 8 9 9 9 9 9 9 9 9 9 8 8 8 8 7 7
1 2 3 4 6 5 6 7 8 10 10 11 11 11 11 10 10 8 8 8 8 8 8 8 9 9 9 9 9 9 8 9 9 8 8 7 7 6
2 3 3 7 8 10 9 10 9 10 11 12 12 11 12 11 8 9 10 10 11 8 9 10 9 10 9 9 9 9 9 9 8 8 7 7 6 6
3 4 7 8 9 10 13 13 13 13 12 11 13 12 11 10 10 10 11 11 11 10 10 12 10 10 9 10 9 9 9 9 8 7 7 7 6 6
5 7 8 10 11 12 13 15 15 14 15 14 12 12 11 11 11 11 11 11 11 11 11 14 11 11 10 9 9 9 9 8 8 7 7 6 6 5
11 11 12 13 13 13 15 16 18 16 15 15 15 14 15 15 14 12 13 14 14 13 12 13 12 12 11 11 8 8 8 7 7 7 7 7 5 4
14 14 14 14 14 14 15 15 17 17 17 17 17 16 15 14 16 14 14 15 15 15 12 13 13 13 14 10 9 8 7 7 7 6 6 6 5 2
15 16 15 15 15 14 14 15 15 16 16 15 14 14 14 14 14 14 14 15 15 15 13 14 14 14 13 13 10 8 7 6 6 5 6 5 4 4
16 16 16 15 15 16 17 16 16 15 15 15 16 16 15 15 15 15 15 15 14 15 14 14 15 14 14 14 13 9 7 6 5 5 3 3 4 4
16 15 16 16 17 17 17 17 17 16 16 16 16 16 16 16 17 16 16 15 15 15 15 14 14 14 13 13 12 10 9 6 4 3 3 3 2 1
16 16 17 17 17 18 18 17 17 16 17 17 17 17 17 17 17 16 17 16 17 16 14 13 13 12 13 11 11 10 8 7 3 2 2 2 1 1
17 17 17 17 17 17 17 17 17 18 18 17 18 18 18 17 17 17 17 17 18 17 16 14 12 11 11 11 11 8 7 5 3 3 2 3 1 -0
16 17 17 16 17 17 17 18 18 19 18 18 18 18 19 19 19 18 18 18 17 16 15 13 12 12 10 8 6 6 5 4 3 2 2 2 2 -0
16 16 17 16 17 17 17 18 18 18 19 19 19 19 19 19 19 18 17 16 16 15 13 12 11 11 12 12 7 5 5 4 2 3 2 2 2 1
16 17 17 17 18 18 18 18 18 18 18 19 19 19 18 18 18 17 16 16 15 14 14 12 11 11 11 11 11 7 6 6 3 2 2 1 0 3
17 18 17 18 18 18 19 19 19 19 20 19 19 18 18 18 18 17 16 17 16 15 14 13 11 10 10 9 10 8 4 3 3 1 1 2 2 2
18 18 18 18 19 19 19 19 19 18 18 18 19 19 18 18 18 17 16 16 15 14 13 12 10 9 9 10 10 8 6 4 2 2 3 3 2 4
19 19 19 19 19 19 19 19 19 19 19 19 19 19 18 18 17 16 16 15 15 15 14 13 11 10 10 9 9 8 7 6 2 2 2 2 3 3

GFSNE_con_lsi_063.txt.gz
Lid_Strength_Index
0 0 1 0 0 0 1 1 3 5 5 2 4 1 2 1 3 3 4 6 6 6 6 5 5 4 4 4 4 4 4 3 3 4 4 3 3 3
0 0 0 0 0 0 1 1 1 3 5 2 2 2 3 4 4 4 4 7 7 7 7 7 6 5 5 5 5 5 5 5 5 5 5 5 5 4
0 1 1 0 1 0 0 1 1 2 5 3 5 5 4 5 6 5 4 4 4 7 7 7 8 7 7 6 6 7 7 7 7 8 8 7 7 6
1 1 1 1 1 1 1 1 2 3 4 6 6 6 7 7 7 6 6 5 4 6 7 7 7 8 8 8 8 8 7 8 9 9 8 8 8 8
1 1 1 1 1 1 1 3 3 5 5 5 6 8 8 7 8 8 7 7 5 6 8 9 8 9 9 8 8 8 8 9 9 9 9 9 9 9
1 1 1 1 1 1 2 3 4 5 6 6 7 10 9 9 9 10 10 8 7 6 7 9 8 9 8 8 9 8 9 9 9 9 9 10 10 9
1 1 1 2 5 4 2 3 4 5 6 8 8 12 11 12 11 10 11 10 8 7 8 8 8 8 8 8 8 8 8 9 9 9 10 9 9 9
1 1 1 5 5 8 8 8 5 6 8 9 10 11 11 11 12 12 12 13 13 9 9 9 8 9 8 8 9 10 10 10 10 10 9 9 9 8
1 1 1 2 6 4 11 13 13 13 12 9 10 12 13 12 13 14 14 13 13 10 10 11 9 10 9 9 9 10 10 10 9 9 9 9 9 8
1 1 1 4 8 11 13 14 15 15 14 13 13 15 14 13 13 13 13 12 11 11 10 14 11 11 10 9 10 10 10 10 10 9 9 8 8 8
11 11 11 12 12 13 15 16 16 17 16 14 15 15 16 16 16 13 14 14 15 14 11 12 12 12 11 11 10 10 9 9 9 9 8 8 8 7
15 15 14 14 14 14 15 15 17 18 17 17 17 17 17 17 17 15 14 15 16 16 12 14 14 13 15 11 11 10 10 9 9 8 7 7 7 7
17 16 16 15 14 15 15 16 17 16 17 17 17 16 15 15 16 16 15 15 16 15 13 14 15 14 14 14 13 11 11 10 8 7 7 6 6 6
17 16 16 15 15 16 15 16 16 16 16 17 17 16 17 17 16 15 15 15 15 15 14 14 15 15 16 16 15 12 11 10 8 7 6 5 5 5
16 16 16 16 16 17 17 17 17 16 16 17 17 17 17 17 16 16 16 16 15 15 15 14 15 16 15 16 15 14 12 10 8 7 5 3 4 3
16 17 17 18 17 18 17 17 17 17 17 17 18 17 17 17 17 16 17 16 17 16 14 14 15 14 15 14 13 12 10 11 7 6 4 3 2 2
17 17 17 17 17 17 17 18 18 18 18 18 18 18 18 17 17 16 17 17 18 18 17 15 14 13 12 13 13 11 10 9 6 6 4 4 3 2
16 16 17 17 17 17 17 18 18 18 19 19 18 18 19 19 18 18 18 19 19 18 17 15 14 14 13 11 9 10 8 7 5 5 4 4 3 1
17 17 17 17 17 18 18 18 18 19 19 18 19 19 19 19 19 19 19 18 18 17 16 14 14 14 15 15 10 7 8 8 8 7 6 3 3 2
17 17 18 17 18 18 18 18 18 18 19 19 19 19 19 20 20 19 18 18 17 17 17 16 15 14 13 13 13 10 8 9 8 7 6 2 1 3
18 18 18 18 18 18 18 18 19 19 19 19 19 19 19 19 19 19 18 18 18 18 18 16 13 11 11 10 12 11 7 5 5 6 5 5 2 2
18 18 19 19 19 19 19 18 19 19 19 19 19 19 19 19 19 19 19 18 18 17 16 14 13 12 12 12 12 11 8 6 5 4 4 3 2 4
19 19 19 19 18 18 18 19 19 19 19 20 20 20 19 19 19 18 17 17 17 16 16 15 14 13 13 12 12 11 10 8 7 6 4 2 2 2

GFSNE_con_lsi_066.txt.gz
Lid_Strength_Index
1 1 1 1 1 1 1 2 3 6 5 4 3 2 2 2 2 4 4 6 7 7 7 6 5 5 5 4 4 4 4 3 3 3 3 3 3 3
1 1 1 1 1 1 1 2 2 3 5 3 3 3 2 2 3 4 5 6 7 8 8 7 7 6 6 5 5 4 5 4 4 4 4 5 5 5
1 1 1 1 1 1 1 1 2 2 4 3 3 3 3 3 5 5 5 6 7 8 8 8 8 8 7 7 7 6 7 6 6 7 7 7 7 6
1 1 1 1 1 1 1 2 2 2 3 4 3 4 5 5 5 7 6 6 6 8 9 8 8 9 9 9 9 9 9 8 8 8 8 8 8 8
1 1 2 1 2 2 2 2 2 2 2 3 4 5 6 8 8 8 8 7 6 6 8 9 9 9 9 9 10 10 9 8 8 9 9 9 9 9
1 1 1 1 2 2 2 2 2 2 3 4 4 6 8 9 7 9 9 8 8 6 7 9 9 9 9 10 10 10 10 9 9 9 9 9 10 10
1 1 1 2 4 4 2 2 2 3 4 5 6 7 10 12 10 9 9 9 9 8 9 10 11 11 11 10 10 9 10 9 9 9 9 10 10 10
2 1 1 5 6 8 8 7 4 3 4 4 5 7 9 9 10 11 11 14 14 10 12 13 11 12 11 11 10 10 9 9 9 9 10 10 10 10
2 2 2 2 6 4 8 10 12 13 11 4 5 8 12 12 12 13 14 15 15 13 14 15 13 13 11 11 10 11 11 11 10 10 10 10 10 10
2 2 2 3 3 5 12 15 15 15 14 13 13 14 13 13 13 13 14 14 14 13 13 16 14 14 13 12 11 11 10 10 10 10 10 10 10 9
12 12 11 11 12 11 14 16 17 17 15 14 15 15 14 14 14 14 15 15 16 16 13 16 16 15 15 14 14 11 11 11 10 10 10 9 9 9
15 14 14 14 14 13 15 16 18 18 17 17 18 16 16 16 16 15 15 16 16 17 15 16 16 16 17 16 15 15 14 11 10 11 10 10 9 10
16 16 16 14 14 14 15 16 17 17 17 16 17 17 16 16 16 16 16 16 17 17 16 16 17 17 18 18 16 15 15 14 14 12 10 9 7 7
17 16 16 15 15 16 16 16 16 16 17 17 17 17 17 17 17 17 17 17 17 17 16 16 17 18 18 19 18 16 15 14 14 13 11 9 7 6
18 17 17 17 17 17 16 16 16 16 17 17 18 18 18 17 17 17 16 16 16 16 15 15 16 17 17 18 19 17 17 15 13 12 11 10 9 8
19 18 18 18 18 17 18 18 18 18 18 18 19 18 18 18 17 17 17 17 18 18 16 16 16 17 18 18 17 18 16 17 14 12 11 10 8 6
18 18 18 18 18 19 19 19 18 18 19 19 19 19 19 18 18 18 18 19 21 20 20 17 16 16 16 17 18 17 16 15 13 12 10 10 8 6
16 17 18 18 18 18 19 19 19 20 19 19 19 19 20 20 20 19 19 20 20 19 19 18 18 17 17 15 13 15 14 13 11 11 10 10 10 7
19 18 19 19 19 19 19 19 20 20 19 20 21 21 22 21 20 20 20 20 20 19 19 17 18 18 20 22 16 11 15 14 13 12 11 10 10 8
18 19 19 19 19 19 20 20 20 20 21 21 21 22 22 22 22 22 21 22 21 20 20 19 19 18 18 20 20 16 10 12 13 12 11 8 6 4
19 19 20 20 20 20 21 21 22 22 22 23 23 23 25 22 23 22 22 23 22 21 21 20 18 16 15 15 18 17 14 9 8 10 9 8 8 7
20 20 20 21 21 21 22 23 24 24 24 24 26 26 26 25 25 24 25 24 21 20 20 18 16 16 16 16 17 16 14 11 9 7 6 6 8 9
22 21 21 22 22 23 23 24 25 26 25 25 24 24 28 27 23 22 21 21 20 19 19 18 17 15 16 16 16 16 15 13 11 10 9 6 4 3

GFSNE_con_lsi_072.txt.gz
Lid_Strength_Index
2 3 3 2 2 2 2 3 4 6 6 5 4 3 3 3 3 3 3 4 5 6 6 5 4 3 3 2 1 1 1 0 1 1 1 1 2 3
2 3 2 2 2 2 2 2 2 3 5 5 4 3 2 2 2 3 2 4 5 6 6 6 6 5 4 3 3 2 2 2 2 3 3 4 4 4
2 2 3 2 3 2 2 2 3 3 4 3 2 3 3 3 2 2 2 2 2 6 7 7 7 7 6 5 5 5 5 5 5 5 5 5 5 5
2 1 2 2 3 3 3 2 2 2 3 4 3 3 4 3 3 3 3 2 2 4 6 7 7 7 7 7 7 7 7 7 7 7 7 7 7 7
2 2 2 2 2 2 2 2 2 2 2 3 4 3 3 6 4 5 3 4 4 4 7 8 8 8 8 8 8 8 8 9 9 10 10 10 10 10
2 2 2 3 3 3 3 3 3 2 2 3 3 3 2 2 3 2 3 4 4 4 6 7 8 8 8 9 9 10 10 10 11 12 12 12 12 11
2 2 2 2 4 3 2 2 2 2 3 3 3 3 3 5 6 3 4 3 4 5 7 8 8 9 9 9 10 11 11 11 11 11 11 11 11 11
2 2 2 5 5 7 8 7 4 3 3 3 3 4 3 3 3 4 3 10 10 10 10 12 10 11 10 11 11 11 11 11 11 11 11 11 11 11
1 2 1 1 5 3 7 9 9 11 10 4 3 3 3 2 3 8 10 12 13 12 12 14 13 13 11 10 11 11 11 10 11 10 10 11 10 10
2 2 2 2 2 3 3 4 12 14 13 12 10 10 12 12 10 10 13 14 15 15 14 16 14 14 12 11 11 11 11 11 11 10 10 11 11 11
4 9 9 7 7 8 5 12 15 16 14 14 14 15 14 14 13 13 14 14 16 16 15 15 15 15 15 14 13 11 12 12 12 12 12 11 11 11
15 15 15 14 14 13 12 15 18 18 18 18 17 17 17 16 16 16 15 16 17 18 18 17 18 17 17 16 15 16 15 14 14 14 13 13 12 13
16 17 16 16 15 15 16 16 17 17 17 17 18 17 18 18 18 18 18 17 18 20 18 17 18 18 17 18 17 16 17 17 17 16 15 14 14 14
17 17 17 16 16 16 16 16 16 17 17 18 19 20 19 19 19 18 18 18 17 18 17 17 18 18 19 19 20 17 17 16 16 17 16 15 14 13
18 18 18 17 17 18 17 18 18 19 19 20 21 21 20 19 18 18 18 18 17 17 17 17 17 17 18 19 19 18 18 17 17 17 18 17 17 16
19 19 19 19 19 20 20 19 20 20 20 20 21 20 20 20 21 20 20 20 20 20 18 18 17 17 19 19 19 19 18 20 18 17 17 17 16 17
18 18 19 20 21 21 21 21 21 21 22 21 21 21 21 21 21 20 20 20 21 21 20 19 18 19 18 18 20 19 18 18 17 18 18 18 18 17
19 21 21 21 22 22 22 22 22 21 21 21 21 21 22 22 21 21 21 22 23 22 22 21 21 21 21 19 18 20 20 20 19 18 17 19 19 17
20 21 21 22 21 21 22 22 22 21 21 22 23 23 22 22 23 23 23 24 24 23 23 22 22 22 26 28 21 18 21 20 20 20 19 19 19 16
21 22 22 22 22 22 22 23 23 23 24 24 25 26 26 25 25 25 25 27 25 24 24 22 23 23 25 28 25 22 17 19 20 20 20 18 16 13
22 23 23 23 24 24 25 25 26 26 26 27 28 27 30 26 27 26 27 29 27 24 25 24 22 20 20 21 28 26 21 17 17 19 18 18 18 16
24 24 25 25 25 25 27 28 27 28 28 27 32 32 33 30 29 29 29 29 25 25 24 22 21 21 21 22 23 24 21 19 16 15 14 14 16 17
25 25 26 27 26 27 27 28 29 30 30 31 31 30 36 31 28 28 28 26 25 24 23 23 21 20 21 20 21 21 21 20 18 17 16 13 11 10

GFSNE_con_lsi_075.txt.gz
Lid_Strength_Index
3 3 3 3 3 3 3 4 4 6 6 5 5 3 3 3 4 3 4 4 6 6 6 5 4 3 3 2 2 1 0 -0 -0 -0 -0 -1 -1 -1
2 3 3 3 2 2 2 2 3 4 5 3 3 3 3 3 3 3 3 4 6 6 7 6 6 5 4 4 3 3 2 2 1 1 0 0 -0 -0
3 3 2 2 3 3 2 2 3 3 4 3 3 2 4 3 3 3 2 3 2 5 6 6 7 7 6 6 5 5 4 3 3 2 1 1 2 3
2 2 2 2 2 3 3 3 3 2 3 4 3 3 5 3 3 3 2 2 2 3 5 6 7 7 7 7 7 7 6 5 4 4 4 4 4 4
1 1 2 2 2 2 2 3 3 3 3 3 3 2 2 4 4 4 3 3 2 3 6 6 6 6 7 7 7 7 7 6 7 7 7 7 7 7
1 1 1 2 2 2 2 2 2 2 2 3 3 3 3 2 4 3 3 3 3 2 4 5 6 7 7 8 8 7 7 8 9 9 10 11 11 10
2 2 2 2 5 4 2 3 3 3 3 3 3 3 3 3 3 2 3 2 2 3 3 5 6 7 8 8 8 8 9 10 9 10 11 12 12 11
3 3 2 6 6 8 8 7 4 3 4 3 3 4 3 3 2 2 3 3 4 8 8 10 9 10 9 9 10 10 10 11 11 11 11 11 11 11
2 2 2 2 5 2 7 9 9 9 7 3 4 3 3 3 2 3 3 4 4 11 12 14 13 13 12 11 11 11 12 11 12 11 11 11 11 11
2 2 2 1 1 2 2 3 4 6 9 10 7 8 10 12 10 9 9 14 14 14 13 15 14 15 12 12 11 11 11 12 12 12 11 11 11 11
4 8 12 9 10 10 4 4 11 16 15 14 14 15 15 15 14 13 15 14 15 17 16 16 16 16 15 15 14 12 12 13 13 13 13 13 13 12
15 15 15 15 14 13 13 11 16 18 17 17 17 17 17 17 16 17 16 17 17 18 18 18 17 17 18 17 17 17 16 16 15 15 15 14 14 15
17 17 16 15 15 15 16 16 17 17 18 18 18 19 18 18 18 18 18 18 19 20 18 18 18 18 18 18 18 18 18 17 17 17 16 16 15 15
18 18 17 18 16 16 18 17 17 18 19 19 20 20 20 20 19 18 17 18 18 19 18 18 19 19 20 20 20 18 18 17 17 17 17 16 16 15
18 18 17 18 17 19 18 18 19 19 20 21 21 21 20 20 20 19 18 18 19 19 18 18 19 19 19 20 20 19 19 18 17 17 17 17 18 18
17 19 19 19 20 20 20 20 20 21 21 22 22 21 21 21 22 20 21 20 21 21 20 20 20 19 20 19 19 19 18 19 18 18 18 18 19 19
18 19 20 20 21 21 21 21 21 21 22 22 22 22 22 22 23 22 22 22 23 23 22 21 19 19 19 19 21 21 21 21 20 20 20 20 20 20
19 21 21 21 22 22 22 22 22 22 22 22 22 23 23 23 23 22 22 23 23 23 23 22 22 22 22 21 19 22 22 22 21 20 19 21 20 18
21 21 22 22 22 22 22 23 23 23 23 23 24 24 23 24 24 24 24 24 24 23 23 23 23 24 28 29 22 19 22 21 21 22 20 21 22 20
22 23 23 23 23 23 23 24 24 25 25 25 26 26 26 25 26 26 25 26 25 24 24 23 23 23 25 29 28 23 19 21 22 22 22 20 19 17
24 24 24 24 24 24 25 26 26 27 28 29 29 28 30 27 27 27 27 27 26 25 25 25 23 21 21 22 29 28 22 18 18 20 20 21 21 20
25 25 25 26 26 26 28 28 28 29 29 28 31 32 33 29 29 29 28 28 25 25 24 23 22 21 22 23 24 26 23 21 18 16 15 16 19 21
27 26 27 28 28 28 27 30 30 30 30 30 31 30 36 31 28 28 29 27 26 25 24 23 22 21 22 21 22 22 22 22 20 20 17 14 14 13

GFSNE_con_lsi_078.txt.gz
Lid_Strength_Index
3 3 3 3 3 3 3 4 5 7 7 5 5 4 4 3 3 3 3 4 5 5 5 4 3 3 3 2 2 1 0 -0 -0 -0 -1 -1 -1 -1
3 3 3 3 3 3 3 3 3 5 6 4 4 3 3 3 3 3 3 4 6 6 6 6 6 5 4 3 3 3 2 2 1 1 1 0 -0 -1
2 3 3 3 3 3 2 3 3 3 5 3 3 3 3 3 2 2 3 3 3 6 7 7 7 6 6 5 5 4 4 4 3 2 2 1 1 0
3 3 3 3 3 2 2 2 2 2 3 5 3 3 3 2 3 2 2 2 2 4 6 6 7 7 7 7 7 7 6 5 5 4 4 3 2 1
2 2 2 1 2 2 2 2 2 2 2 4 4 2 2 2 3 3 2 2 2 3 5 6 6 6 6 7 7 7 7 7 7 7 6 6 5 4
1 1 1 1 1 1 2 2 2 3 3 3 3 3 2 2 2 3 3 3 3 2 3 4 4 5 6 6 7 7 7 7 7 7 7 8 8 7
2 2 1 2 4 3 1 1 2 2 2 3 3 3 3 3 3 2 3 2 2 1 2 2 3 3 3 6 5 7 7 7 8 8 9 10 10 10
3 2 2 6 6 8 8 7 3 2 3 4 3 4 4 3 2 3 3 4 5 1 2 2 6 4 5 6 8 9 9 9 9 10 10 11 11 11
3 3 3 2 5 3 6 9 9 9 8 3 3 3 3 3 3 3 3 4 3 7 9 9 12 12 11 10 10 10 10 11 11 11 11 12 12 12
3 4 8 7 5 9 5 3 4 6 12 8 7 10 14 14 12 10 11 14 13 14 14 14 14 15 13 12 11 11 12 12 12 13 13 13 13 12
14 14 15 15 14 13 12 12 14 17 16 15 15 16 16 15 15 13 14 12 13 17 17 16 16 16 16 16 15 14 14 14 15 14 14 14 14 14
16 16 16 15 15 15 14 14 17 18 18 18 18 18 17 17 18 18 17 17 17 19 18 17 17 17 18 17 17 16 16 15 15 15 15 15 15 16
17 17 17 16 16 16 16 17 17 18 18 18 19 19 19 19 19 19 19 19 20 21 19 17 19 18 18 18 18 17 17 17 17 17 16 16 16 16
18 18 18 17 16 17 18 18 17 19 19 20 21 22 22 21 20 19 19 19 19 20 20 19 19 19 19 19 20 18 18 17 18 18 17 17 17 17
15 16 16 16 17 18 18 19 18 19 21 21 21 22 21 20 20 20 19 19 19 20 20 20 19 19 19 20 20 19 19 18 17 18 18 17 17 17
17 18 17 18 19 19 19 19 19 19 20 20 20 20 20 20 21 21 21 20 22 22 20 20 20 20 20 20 19 20 20 20 19 19 19 19 18 18
19 19 19 20 20 20 20 20 20 20 21 21 21 21 21 21 22 22 22 22 23 23 22 21 20 19 19 19 21 21 21 21 21 20 20 20 19 18
20 21 21 21 21 21 21 22 22 22 22 22 22 22 23 23 23 23 22 23 23 23 23 22 22 22 22 21 19 22 22 22 21 21 21 22 21 19
22 23 23 23 22 22 22 22 23 23 23 24 24 24 23 23 23 23 23 23 23 23 23 23 23 24 26 27 23 20 23 22 22 22 21 21 21 20
23 24 25 24 24 24 24 24 25 26 26 26 26 27 26 25 25 25 25 25 24 24 24 23 24 24 25 26 25 22 19 21 21 22 21 20 19 18
25 25 26 25 25 26 28 28 30 29 29 29 29 29 30 26 26 26 26 26 25 24 25 25 23 21 21 21 25 24 21 19 19 20 20 21 21 20
27 27 27 27 28 28 30 31 29 30 29 29 31 32 32 28 27 27 27 26 25 24 24 23 22 21 22 23 24 23 22 20 18 17 17 17 20 22
30 28 29 30 29 29 28 31 31 31 31 31 31 30 34 30 28 27 27 26 25 24 23 23 22 21 22 22 22 22 22 21 19 19 17 15 15 14

GFSNE_con_lsi_081.txt.gz
Lid_Strength_Index
3 2 2 3 3 3 2 3 4 5 5 3 3 1 1 1 2 0 0 3 5 5 5 5 4 3 2 2 1 1 1 -0 -1 -1 -1 -1 -1 -1
3 3 3 3 3 3 3 3 3 4 5 2 2 1 1 2 2 2 2 4 5 6 6 6 5 4 4 3 3 3 2 2 1 0 -0 -0 -1 -1
2 2 2 2 2 2 3 3 3 3 5 3 2 1 2 3 1 1 2 2 2 6 7 7 7 6 6 6 5 5 4 3 3 2 1 1 0 -0
2 2 2 2 3 2 3 3 3 3 2 3 2 2 2 1 1 1 1 1 2 4 6 6 7 7 7 7 7 7 6 5 5 4 4 3 2 1
1 2 2 1 1 1 2 2 2 2 2 3 3 2 1 1 1 1 0 -0 -0 3 6 6 6 6 7 7 7 6 6 6 6 6 6 5 4 3
1 1 1 1 1 1 1 1 1 1 1 2 3 2 2 0 1 2 2 1 1 -0 2 3 4 5 6 6 6 6 6 6 6 7 7 7 7 6
1 1 0 1 4 2 1 1 1 2 2 3 3 3 3 2 3 2 2 2 1 0 0 0 -0 -1 -0 4 4 6 7 7 7 7 7 8 9 8
2 1 1 5 5 7 8 7 4 2 3 3 3 3 3 3 2 2 3 3 4 1 1 2 0 1 5 8 9 9 8 8 8 8 8 9 10 11
2 3 3 3 8 4 7 9 9 10 11 7 5 4 5 8 10 5 4 3 3 8 10 8 11 12 11 11 10 10 10 10 10 11 11 11 11 12
13 13 12 13 13 12 10 10 15 15 15 14 15 16 16 15 15 12 12 13 13 16 15 14 14 15 15 14 13 13 13 13 13 13 13 14 13 14
15 15 15 15 15 14 11 14 16 17 15 15 16 16 17 16 16 14 15 14 14 17 18 16 16 17 17 17 16 15 14 14 14 14 14 14 14 14
17 17 16 16 15 15 15 15 18 18 17 19 18 19 18 18 18 19 18 18 18 19 19 18 17 16 18 17 17 16 16 16 16 16 16 16 15 14
16 15 15 15 15 15 15 16 17 17 19 18 18 18 18 18 18 17 17 18 19 19 18 16 17 17 17 17 16 17 16 17 16 16 16 16 16 16
15 14 15 14 14 15 14 15 15 15 15 15 17 17 17 17 17 16 17 17 17 19 18 16 17 17 16 17 17 16 16 16 16 17 16 16 16 17
14 15 16 16 16 16 16 16 15 15 15 16 16 17 17 16 16 16 15 15 17 17 17 17 17 16 16 17 17 18 17 17 17 17 17 17 17 17
15 16 16 16 17 17 16 16 16 17 17 17 17 16 16 17 17 16 17 17 17 18 18 18 17 17 18 18 18 19 19 19 18 18 18 17 17 16
16 15 16 16 17 17 17 18 17 17 17 17 17 17 17 17 18 17 18 17 18 19 19 19 18 17 17 18 18 19 19 19 18 18 19 19 18 17
17 18 18 18 18 18 18 19 18 19 19 19 19 19 19 19 19 18 18 18 19 20 20 20 19 19 19 18 18 19 19 20 19 19 19 20 19 17
18 19 19 19 19 19 20 20 21 21 20 20 20 20 20 20 20 20 20 20 20 20 20 20 20 21 22 22 19 19 20 20 19 19 18 18 19 17
20 20 20 20 21 21 21 21 22 21 22 22 22 22 21 21 21 21 21 21 21 20 20 20 20 21 21 21 21 19 19 19 19 19 18 17 16 16
21 21 21 21 21 22 22 23 23 24 24 23 23 23 22 21 21 21 21 23 22 20 21 21 20 20 18 18 19 19 17 17 17 18 18 18 17 16
22 22 22 22 22 22 23 22 22 23 23 23 23 23 23 22 22 22 22 21 21 20 20 19 18 18 18 19 19 19 17 16 15 15 15 16 17 18
23 22 22 22 22 22 22 23 24 23 24 24 24 23 24 23 22 21 20 20 20 19 19 18 18 17 17 18 18 17 17 16 15 15 14 13 14 14

GFSNE_con_lsi_087.txt.gz
Lid_Strength_Index
1 1 1 1 0 1 1 2 3 5 5 3 3 -0 -1 -1 0 -1 -1 2 5 6 6 5 4 4 3 3 2 2 1 0 0 -0 -0 -1 -1 -1
2 1 1 1 1 1 1 1 1 3 5 4 2 1 -0 1 1 -0 -1 3 5 6 7 6 6 5 5 4 4 3 3 2 2 1 1 0 -0 -1
2 2 2 2 2 1 1 1 1 2 4 3 2 2 2 2 2 1 2 1 0 5 6 6 6 6 6 6 6 5 4 4 3 3 2 1 1 0
2 2 3 3 2 2 2 2 2 2 3 5 3 3 3 2 2 2 1 0 1 2 5 5 5 6 6 6 7 6 6 6 6 5 4 3 2 1
3 3 2 2 2 2 2 2 2 2 2 3 3 1 1 0 1 0 0 -0 -1 2 5 6 6 6 6 6 7 7 7 7 7 7 6 6 5 4
2 2 2 2 2 2 2 2 2 2 2 2 3 2 2 1 1 2 2 0 1 -0 1 4 4 6 9 9 9 9 9 8 8 8 8 8 9 8
2 2 1 2 5 4 2 2 1 2 2 3 3 3 3 3 3 2 2 2 1 6 6 6 8 10 12 11 11 11 10 10 10 9 9 10 9 9
4 5 5 9 10 12 13 13 13 9 6 5 4 4 4 11 12 10 9 9 8 11 10 9 11 14 13 14 13 12 12 12 12 12 11 12 12 12
12 11 10 11 12 10 13 14 15 15 15 13 12 16 15 16 16 13 11 11 11 15 13 12 13 15 15 15 14 13 14 14 14 14 14 14 14 14
15 15 14 14 13 12 14 17 17 16 16 16 17 17 16 16 15 14 13 13 13 16 16 14 15 16 15 15 14 14 14 14 14 13 14 13 14 14
16 15 16 15 14 13 15 17 17 18 16 15 15 15 15 15 15 15 14 13 14 14 14 14 13 13 14 13 13 13 13 13 13 13 13 13 13 13
16 16 15 15 14 14 15 16 18 17 15 14 14 14 13 14 14 14 13 13 13 12 14 15 12 12 12 11 11 11 11 12 13 13 13 13 13 12
16 17 16 15 15 15 14 14 15 14 14 13 14 13 13 13 13 13 13 14 14 14 14 13 12 12 12 12 11 11 11 12 12 11 12 12 13 13
16 16 16 16 16 15 15 14 13 13 12 13 13 14 14 14 13 12 12 13 13 14 13 13 13 13 14 13 12 11 11 10 11 12 11 12 12 12
15 16 16 15 15 15 15 14 14 13 13 14 14 14 13 13 12 12 11 12 12 13 14 14 14 14 13 13 13 13 13 12 11 12 13 13 13 12
14 14 14 14 14 14 14 14 14 14 14 14 14 14 13 13 14 14 14 13 13 14 13 13 13 14 14 14 14 14 14 15 14 13 13 13 13 12
13 13 14 14 14 14 15 15 15 15 15 15 15 15 15 15 15 14 15 14 14 15 15 14 14 13 13 15 16 15 15 15 14 14 15 15 13 12
14 15 15 15 15 15 16 16 16 17 16 16 16 16 16 16 16 15 14 15 15 15 15 15 15 15 15 14 16 16 16 16 15 15 15 15 15 12
15 15 16 16 16 17 17 17 17 17 17 17 17 17 16 16 16 16 16 17 17 16 16 15 16 17 19 19 15 15 16 15 15 15 15 15 15 14
16 16 17 17 17 17 18 18 18 18 17 17 17 18 18 17 17 17 17 18 18 17 16 15 16 17 19 19 18 15 12 15 15 15 15 14 13 12
17 18 17 17 17 17 17 17 17 18 18 18 18 18 18 17 18 18 17 18 18 17 18 17 16 16 15 14 15 14 13 11 11 12 12 13 14 13
17 17 17 17 17 17 17 18 18 18 19 18 18 18 19 18 18 18 18 18 17 17 17 15 14 14 13 14 14 14 13 11 10 10 10 11 12 15
18 17 17 18 18 18 18 18 19 19 19 19 19 19 19 19 18 17 17 17 16 16 16 16 14 13 13 13 14 13 13 13 12 12 11 10 10 10

GFSNE_con_lsi_090.txt.gz
Lid_Strength_Index
2 2 2 2 2 3 2 2 5 7 6 4 4 1 1 1 2 1 1 5 6 7 6 6 5 4 3 3 2 2 1 1 1 0 -0 -1 -1 -1
2 2 2 2 2 2 3 3 3 4 6 5 5 3 2 2 1 1 1 3 5 6 7 7 6 5 4 4 4 3 3 2 2 1 1 1 0 -0
3 3 3 2 3 3 3 3 3 3 5 4 4 4 4 3 2 2 2 2 2 6 7 7 6 6 5 5 5 4 4 3 3 2 2 2 1 1
4 4 4 3 3 3 3 3 3 3 4 5 4 4 4 3 3 3 2 1 1 2 5 5 5 6 6 6 6 7 6 6 5 4 4 3 2 2
4 4 4 3 3 3 3 3 3 3 3 4 4 4 3 2 2 1 1 1 0 2 5 6 6 7 8 8 8 9 8 8 8 8 7 7 6 6
4 4 3 3 3 3 3 3 3 3 3 3 3 3 3 2 2 2 3 1 1 1 6 9 10 10 11 11 11 10 10 10 10 10 10 11 10 9
4 4 4 8 10 8 4 3 3 3 4 3 4 3 3 3 5 9 7 7 9 10 7 9 10 12 12 12 12 12 12 12 11 11 11 12 12 12
7 7 9 10 13 13 13 14 13 9 7 7 6 10 11 12 13 12 10 10 10 13 12 10 12 14 14 13 13 13 12 12 12 12 12 13 13 13
12 12 11 12 11 13 14 15 15 15 15 12 15 16 16 15 15 14 13 13 12 15 14 13 13 15 14 14 13 13 13 13 13 13 13 12 12 13
14 14 14 14 12 14 15 16 16 16 16 16 16 17 17 16 15 14 14 13 15 15 15 14 14 15 14 14 12 12 12 12 12 12 12 12 13 11
16 15 15 15 14 14 16 17 17 17 15 14 15 15 15 15 15 15 15 14 14 15 17 16 13 13 13 13 12 11 12 11 12 12 12 12 12 13
17 16 15 15 15 15 16 17 17 16 15 15 15 15 15 15 15 16 16 15 15 15 18 16 14 14 14 12 12 15 15 12 11 11 11 12 12 16
18 18 17 16 15 15 15 15 15 14 15 15 15 15 15 15 17 18 18 19 18 17 18 16 14 14 14 14 12 14 15 15 15 13 11 12 12 12
18 18 17 16 15 15 15 14 14 14 15 15 16 17 19 19 18 18 18 17 18 18 18 18 18 18 19 18 17 15 15 16 15 15 16 13 13 12
17 17 16 16 15 16 15 15 17 16 16 16 18 20 20 19 18 17 16 15 15 16 15 16 18 17 18 19 19 17 16 16 16 16 16 16 16 16
17 16 15 16 18 19 18 18 18 18 19 20 21 20 19 18 18 17 18 17 17 17 15 15 16 16 17 17 17 17 16 18 16 16 16 16 15 15
16 16 17 17 19 19 19 19 19 19 20 20 20 20 19 18 18 17 17 17 19 19 19 16 16 15 15 15 17 17 17 18 17 16 17 17 16 16
16 17 19 19 20 20 20 20 20 20 19 19 20 19 19 19 18 17 18 19 19 18 18 17 17 17 17 16 15 17 18 18 17 16 16 18 18 16
18 18 20 20 20 19 20 20 21 20 19 20 21 21 20 19 19 19 18 19 19 19 18 17 18 19 24 26 18 15 18 17 17 17 16 17 18 16
19 19 20 20 20 20 20 20 21 22 22 21 22 23 22 20 21 20 20 23 21 19 19 18 18 19 22 25 23 18 13 16 17 16 16 15 14 11
19 20 21 21 20 20 23 23 23 24 25 24 23 22 24 21 22 22 22 23 23 19 20 19 18 17 16 16 23 21 16 11 12 14 14 14 15 15
20 20 20 21 22 22 22 24 24 23 24 23 23 26 26 23 23 24 23 24 21 20 19 18 17 16 16 16 17 18 15 14 11 10 10 11 15 17
22 20 21 23 22 22 21 22 23 23 24 24 24 24 26 23 23 22 22 21 20 19 19 19 18 16 16 15 16 16 16 16 13 15 14 11 11 10

GFSNE_con_lsi_093.txt.gz
Lid_Strength_Index
2 2 2 2 3 3 3 4 5 7 5 4 4 2 1 1 2 2 3 4 7 7 7 6 5 4 3 3 2 2 1 1 1 0 0 -0 -0 -1
2 2 2 3 3 3 3 3 4 5 7 5 4 3 1 1 2 1 1 3 6 7 7 7 6 5 4 4 3 3 2 1 1 1 0 0 -0 -0
2 2 3 3 3 3 3 3 4 4 6 5 5 4 3 3 3 3 3 2 2 6 7 7 7 7 6 5 5 4 4 3 3 2 2 1 1 0
3 3 3 3 3 4 3 4 4 3 4 5 4 4 5 4 3 3 3 2 2 4 5 7 7 7 7 8 8 8 7 7 7 6 6 5 5 4
4 4 4 4 4 4 4 4 4 4 4 5 5 4 4 4 3 3 3 1 1 3 8 9 9 10 9 9 9 9 10 10 10 10 10 10 10 9
4 4 4 4 4 4 4 4 4 4 4 4 4 4 4 4 4 3 3 5 6 5 8 10 10 11 11 11 11 11 11 11 11 11 11 11 12 11
4 5 9 10 11 10 4 4 4 4 4 4 3 3 4 8 8 8 7 7 11 11 8 10 11 12 12 12 12 12 12 12 11 11 12 12 12 12
8 10 11 13 14 14 14 14 13 9 5 5 8 9 12 12 12 12 11 10 10 14 13 13 13 14 14 13 12 12 12 12 11 12 12 12 12 12
12 11 11 12 13 14 14 14 15 14 14 11 14 15 16 16 15 13 13 12 15 17 15 14 13 15 14 13 12 12 12 12 12 12 12 12 12 11
14 14 12 12 13 14 15 16 16 16 16 15 16 17 16 16 15 14 14 15 16 18 17 15 15 15 14 15 12 12 12 12 12 12 13 12 12 13
15 15 15 15 14 14 16 17 17 16 15 15 15 15 16 16 16 15 16 14 15 17 20 16 14 18 14 13 13 12 12 12 12 12 12 12 12 13
16 15 15 16 15 15 16 16 17 17 17 17 17 16 17 17 16 18 20 19 20 19 20 17 15 17 18 13 14 15 18 12 12 11 11 12 12 17
18 17 16 15 15 15 15 16 17 16 17 18 20 20 20 20 20 19 20 20 21 23 20 21 18 22 21 18 17 14 18 17 17 15 13 13 13 14
19 18 17 16 16 16 17 16 16 16 17 20 21 22 22 21 21 21 21 21 22 21 21 20 22 22 23 22 21 18 18 17 17 17 17 15 14 13
18 17 17 18 18 19 18 18 19 19 20 20 22 23 25 24 21 19 18 18 18 17 16 17 19 19 20 22 21 19 18 18 18 18 17 17 17 16
18 18 19 20 21 21 21 20 20 20 21 22 23 24 22 20 20 19 20 19 19 18 16 17 17 17 18 18 18 18 18 19 18 17 16 17 17 16
19 19 20 20 21 21 21 21 22 21 22 22 22 22 21 20 20 19 19 20 22 21 20 18 16 16 17 17 19 18 18 18 18 17 17 18 18 17
19 21 21 22 22 22 22 22 22 22 21 21 22 21 22 20 20 20 20 21 22 21 20 19 19 19 18 18 16 19 19 19 17 16 17 18 18 16
21 21 22 22 21 21 21 21 22 22 20 21 22 23 22 21 21 21 21 21 21 21 20 19 19 20 25 27 19 15 19 18 17 18 17 17 18 16
20 21 22 22 21 21 21 22 23 23 23 22 24 25 26 23 24 22 22 25 22 20 20 19 20 21 24 28 25 19 14 17 17 17 17 15 14 11
20 21 21 22 21 22 24 24 27 28 28 28 27 26 29 25 26 24 24 25 24 21 22 21 20 19 18 18 25 23 18 13 14 15 14 16 16 16
22 22 22 23 24 22 24 31 27 28 28 26 31 31 29 26 26 26 25 25 23 22 21 20 19 18 18 19 20 22 18 16 12 11 12 13 16 18
24 22 24 27 27 27 25 27 27 28 28 28 28 27 30 25 25 25 23 23 22 22 21 21 20 18 19 18 18 18 17 17 15 16 16 12 12 11

GFSNE_con_lsi_096.txt.gz
Lid_Strength_Index
1 1 1 2 3 3 3 4 5 7 6 5 4 3 3 3 3 4 3 5 7 7 7 6 5 4 4 3 2 2 1 1 0 -1 -1 -1 -1 -1
2 2 2 2 3 3 3 4 4 5 6 4 4 3 2 2 3 2 2 4 7 7 7 7 6 5 5 4 4 3 3 2 1 1 0 -0 -1 -1
2 2 2 2 3 3 3 4 4 4 6 5 4 4 3 2 2 2 2 2 2 6 7 7 8 8 7 7 6 6 5 4 4 4 4 3 2 2
2 2 3 2 3 4 4 4 4 3 4 5 4 4 4 4 4 4 3 2 2 7 9 10 10 10 9 9 9 8 8 8 8 7 7 8 7 7
3 2 3 3 4 4 4 4 4 4 4 5 5 4 4 4 4 4 3 3 7 9 11 10 9 9 9 9 9 9 9 10 10 11 11 11 10 9
4 4 3 3 4 4 4 4 4 4 4 5 5 5 4 4 4 5 5 8 9 9 10 10 10 10 10 10 11 11 11 11 11 11 12 12 12 11
7 9 10 10 11 9 4 4 4 5 5 5 5 5 5 8 7 9 8 8 12 11 10 11 12 12 12 12 11 11 12 11 12 12 12 12 11 12
10 11 13 13 14 14 14 15 14 6 5 5 6 7 12 12 11 10 9 9 10 14 12 14 13 14 13 13 13 13 13 13 13 13 13 13 12 12
11 11 13 14 14 15 15 15 16 15 15 10 12 14 14 14 13 12 12 12 16 17 15 15 14 15 14 13 13 14 13 13 13 13 13 13 13 13
13 12 13 14 14 14 15 16 16 16 15 15 16 16 15 15 14 13 14 16 17 18 18 16 16 19 15 15 13 13 13 13 13 13 13 13 13 14
15 14 14 14 14 13 15 16 16 16 15 15 15 15 15 15 15 15 15 15 17 21 23 18 21 21 15 15 14 12 12 12 12 12 12 13 14 15
16 16 15 15 15 14 15 16 17 17 17 17 18 18 18 18 17 19 21 21 19 25 22 18 21 22 21 14 17 17 19 14 13 14 14 14 14 18
17 17 16 15 15 15 15 16 17 17 18 19 20 20 20 20 20 20 21 21 23 24 22 22 25 25 25 23 21 17 20 20 20 19 16 15 15 15
18 18 17 16 16 16 16 16 17 19 20 21 22 23 22 22 22 22 22 22 21 21 22 22 23 22 24 24 23 20 20 20 20 19 19 17 16 16
19 18 18 19 19 19 19 19 20 21 22 23 24 24 25 25 22 19 18 18 18 18 18 18 20 19 21 23 22 21 20 19 19 19 18 18 18 17
20 21 21 21 22 22 22 22 22 23 23 23 23 23 21 21 22 21 21 20 20 20 18 18 18 18 20 19 19 20 19 21 19 18 18 18 18 17
20 21 22 22 23 23 24 23 23 23 24 24 23 23 21 21 21 21 21 21 23 22 21 19 18 18 18 18 20 20 20 20 19 18 18 19 18 18
21 23 23 23 24 24 24 23 23 23 22 22 23 23 22 22 21 21 21 22 22 21 21 20 21 21 20 19 18 20 20 20 19 18 18 20 19 17
22 23 23 23 23 22 23 23 24 23 22 24 24 24 23 22 22 22 22 22 22 21 21 20 21 22 27 30 20 17 20 19 19 20 19 19 19 17
22 23 23 23 22 22 23 23 24 24 24 24 25 27 27 24 24 23 23 25 23 22 21 21 22 22 26 29 28 22 16 19 20 20 19 17 16 14
22 22 22 22 22 23 24 25 26 27 27 28 27 27 29 25 27 25 25 26 25 22 23 23 22 21 20 21 28 26 20 16 16 17 17 18 18 17
23 23 23 24 25 24 27 28 27 28 27 27 30 30 31 27 28 27 28 28 25 25 23 22 21 20 21 21 22 25 20 19 15 14 13 14 17 18
25 24 26 27 27 27 25 27 28 29 30 30 30 30 35 30 28 29 29 27 25 25 23 23 22 20 21 20 21 21 20 19 17 17 16 13 12 12

GFSNE_con_lsi_102.txt.gz
Lid_Strength_Index
1 1 1 1 2 2 2 2 4 6 6 5 5 3 2 3 3 3 3 6 7 7 6 5 5 4 4 3 3 2 2 1 1 1 1 0 0 -0
1 1 1 1 2 2 3 2 3 4 6 4 4 3 3 3 3 3 3 6 8 8 8 7 7 6 5 5 5 5 4 4 3 3 2 2 2 2
1 1 2 1 2 2 2 2 3 4 6 5 4 4 3 3 4 3 4 4 7 8 8 8 8 8 8 8 7 7 6 6 6 6 6 5 5 5
2 2 2 2 3 2 3 3 3 4 5 6 6 5 4 3 3 3 4 7 9 10 10 10 10 10 10 10 10 10 9 9 9 9 8 7 6 6
2 2 2 2 2 3 3 3 3 3 4 5 6 5 5 4 4 6 8 9 10 10 11 11 11 11 11 10 10 11 11 11 11 11 10 10 9 9
5 4 3 2 2 2 3 3 3 4 4 5 5 5 4 4 4 7 9 9 11 11 11 11 11 11 11 11 11 11 11 12 12 11 11 12 12 12
9 10 11 10 8 6 3 3 3 4 4 5 5 6 5 5 6 6 9 12 13 11 12 12 12 13 12 12 12 12 13 13 12 12 13 13 14 14
10 11 12 13 14 14 14 15 11 4 5 5 6 6 7 8 9 8 12 13 14 14 14 15 14 14 14 14 13 13 13 13 13 13 14 14 15 15
12 12 13 13 14 14 15 15 16 16 15 7 7 10 11 13 11 11 11 13 16 17 14 16 15 16 14 13 12 12 13 13 14 14 14 15 16 16
14 14 14 14 14 15 15 16 17 17 16 16 16 16 16 15 14 13 15 18 17 18 17 17 15 15 14 14 13 13 13 14 14 14 15 16 16 17
14 14 15 15 14 14 16 18 19 19 16 16 16 16 16 15 14 15 16 16 18 19 18 16 17 16 15 17 16 14 14 15 15 16 16 16 17 18
16 15 14 15 15 15 17 18 20 19 18 19 19 19 18 18 17 16 14 17 19 19 19 18 19 18 18 18 19 19 18 17 17 17 17 17 18 18
17 17 16 16 16 16 17 19 20 19 20 20 20 19 20 19 19 19 18 18 20 21 20 19 20 20 20 19 19 20 19 20 20 19 19 19 19 19
19 18 17 17 17 17 18 18 19 20 20 21 21 22 21 21 20 19 19 19 19 19 18 18 20 20 21 21 21 20 20 20 20 21 20 19 19 18
20 19 19 19 19 19 19 20 21 21 22 23 23 23 22 20 19 19 19 19 20 20 19 19 20 20 20 21 22 22 22 21 21 21 20 19 19 19
21 21 21 21 22 22 22 22 22 22 22 23 22 22 21 21 22 21 21 21 22 22 21 21 20 20 21 22 22 23 22 23 21 20 20 19 19 18
21 21 22 22 23 23 23 23 23 23 23 23 22 22 22 22 23 22 22 22 23 24 24 23 21 21 21 21 22 22 22 21 21 21 21 21 19 18
22 23 24 24 24 24 24 24 24 24 23 23 23 23 23 23 24 23 22 23 24 24 24 24 24 23 22 21 19 22 22 22 21 20 20 21 21 19
23 23 24 24 24 23 24 24 25 25 24 24 24 24 23 23 24 24 24 23 24 24 24 23 24 24 26 27 23 19 21 21 21 21 21 21 21 20
22 23 23 23 23 23 24 25 25 25 25 25 25 25 24 24 24 24 24 24 24 24 24 24 24 24 24 25 24 22 19 21 22 22 22 20 19 18
22 23 23 24 24 25 26 27 28 28 28 28 28 27 28 25 26 25 25 25 25 24 25 25 23 21 21 22 25 24 22 20 20 21 21 21 21 19
23 23 23 24 24 25 27 28 28 28 27 27 29 30 28 26 27 26 26 25 24 24 24 23 22 22 23 23 25 25 23 22 20 19 18 18 20 21
26 25 26 26 26 26 26 28 28 28 28 28 28 28 30 27 26 26 26 25 25 25 25 24 23 23 23 23 24 24 24 23 21 21 19 17 16 15

GFSNE_con_lsi_105.txt.gz
Lid_Strength_Index
1 1 1 1 1 1 1 2 3 6 5 3 3 2 2 2 2 1 1 6 8 8 7 6 5 4 3 2 2 2 1 1 1 1 1 1 1 1
2 1 1 1 1 1 1 1 2 3 5 2 3 3 2 2 2 1 1 5 8 8 8 8 7 6 5 5 4 4 3 3 3 3 3 3 3 3
1 1 1 1 1 1 1 1 2 2 4 3 2 3 3 2 1 1 1 1 4 8 9 9 8 8 7 7 6 6 6 5 5 5 5 5 4 5
1 1 1 1 1 1 1 2 2 2 2 5 3 4 3 2 1 1 3 4 7 10 10 10 10 10 10 10 9 9 9 9 8 8 7 7 6 7
1 1 2 2 2 2 2 2 2 3 3 4 5 4 4 3 3 6 7 8 9 10 11 11 11 11 10 11 11 11 11 11 11 11 10 10 10 10
4 6 8 8 5 2 2 2 3 3 3 4 5 5 4 3 5 9 10 9 10 10 11 11 11 11 11 11 11 11 12 12 12 12 12 12 12 12
8 9 11 11 12 10 2 3 3 3 3 4 4 5 5 5 7 7 10 12 12 11 12 12 12 12 12 12 12 12 13 13 13 13 14 14 14 14
9 10 11 12 12 13 13 14 14 4 4 4 4 5 5 5 7 8 12 13 14 12 14 15 13 15 14 13 13 13 13 14 14 14 15 15 15 15
10 10 11 12 12 13 14 15 16 15 15 8 5 7 8 10 8 10 10 11 15 15 15 17 15 16 15 14 14 14 14 14 14 15 15 14 15 16
12 12 12 13 14 14 15 17 17 17 17 16 16 16 16 15 13 12 15 17 17 17 15 17 16 16 15 14 14 14 14 14 14 14 15 16 16 17
14 13 14 14 14 13 15 17 18 18 17 16 16 16 16 15 14 13 15 15 18 19 19 17 17 17 18 18 15 14 14 14 15 16 16 17 17 18
16 16 15 16 16 15 16 17 19 19 19 19 19 19 18 18 17 16 15 16 18 19 19 19 19 16 20 19 18 16 16 17 17 17 17 18 18 16
18 17 17 16 16 17 17 18 19 18 19 19 19 19 19 20 20 19 19 17 19 21 19 18 19 17 16 18 17 17 16 17 16 17 19 19 18 18
20 19 18 17 17 18 18 18 18 19 19 20 21 21 21 21 20 20 19 19 19 19 18 17 18 17 16 17 18 18 17 17 17 17 17 18 19 19
19 19 19 19 19 19 19 19 20 20 20 22 22 22 21 20 20 20 19 19 20 19 19 18 18 18 18 18 19 20 20 19 19 19 19 19 19 19
20 20 20 20 20 20 20 20 20 20 20 21 21 21 20 20 20 19 20 20 21 21 20 20 19 18 20 19 20 21 20 20 19 20 20 19 18 18
19 19 20 20 21 21 21 21 20 20 20 20 20 20 20 20 20 19 19 19 21 22 22 21 20 19 19 20 21 21 20 20 19 20 20 19 18 17
20 21 21 21 21 21 22 22 21 21 20 20 20 20 21 21 21 20 20 20 21 22 22 22 21 21 21 20 19 21 20 20 20 20 20 20 19 17
20 21 21 21 21 21 22 22 22 22 21 21 20 20 20 21 20 21 20 21 22 22 22 22 22 21 21 22 21 20 21 20 21 20 20 19 18 17
20 20 21 21 21 21 21 21 21 21 21 21 21 21 20 20 20 21 20 20 20 21 21 21 22 22 22 22 21 20 20 20 20 20 19 18 17 17
19 19 19 20 21 21 21 22 22 22 22 22 22 22 21 20 21 21 22 23 21 21 22 22 22 22 19 19 20 20 19 20 20 20 19 19 18 17
19 19 19 19 20 20 21 21 21 21 21 21 21 21 20 20 20 21 20 20 20 20 21 20 20 19 19 20 21 21 20 19 18 19 19 19 18 18
20 19 19 20 19 20 20 21 21 21 22 22 21 21 21 21 21 20 20 21 21 21 21 20 20 20 20 21 22 21 21 20 19 19 17 18 17 16

GFSNE_con_lsi_108.txt.gz
Lid_Strength_Index
1 1 1 1 1 1 1 2 4 6 5 2 2 0 -0 -0 2 3 2 6 7 7 7 6 5 5 4 3 2 1 1 -0 -1 -1 -0 0 -0 0
1 1 1 1 1 1 1 1 1 3 5 2 2 0 -0 0 3 1 1 5 8 8 8 8 7 6 5 5 4 2 2 2 1 1 2 2 2 2
1 1 1 0 1 1 1 1 2 2 4 3 1 0 0 0 1 2 2 1 2 8 9 8 8 8 7 7 6 6 5 4 4 4 3 3 3 4
1 1 1 1 2 1 1 2 2 1 3 4 2 2 1 1 1 2 2 1 1 9 9 9 9 9 9 9 9 8 8 7 7 6 5 5 4 5
1 1 1 1 2 1 1 2 2 2 2 3 3 2 1 2 2 4 6 8 9 10 11 11 11 11 11 11 10 10 10 10 10 10 9 9 8 8
2 1 3 3 5 5 3 2 2 2 3 3 3 3 3 2 4 8 10 9 10 10 10 11 11 11 11 11 11 11 11 11 12 12 12 12 12 12
5 6 8 10 12 11 7 4 2 2 3 4 4 4 4 4 6 7 10 12 12 11 12 12 12 12 12 12 11 12 12 12 12 13 13 14 14 14
8 8 9 11 11 13 13 14 14 6 3 4 4 5 5 4 5 8 12 13 15 12 14 15 14 14 14 13 13 13 13 13 14 14 15 15 15 16
10 10 10 10 11 11 13 13 14 15 15 10 5 6 5 5 6 9 10 11 14 14 15 17 15 16 15 14 13 13 14 14 14 15 16 16 16 17
13 13 13 13 13 13 14 14 16 16 16 16 16 17 16 15 8 9 11 16 16 16 15 17 16 17 16 15 14 14 14 15 15 15 16 17 17 17
15 15 15 15 14 13 14 15 16 16 16 15 16 16 16 16 14 13 14 14 16 18 17 17 17 19 18 18 15 14 14 15 15 16 16 17 18 17
16 16 15 15 15 16 16 17 19 18 18 18 18 19 18 18 17 17 13 14 17 18 18 17 18 18 21 19 18 17 17 16 17 17 17 18 18 14
18 18 17 16 16 16 17 18 18 17 18 18 19 19 20 20 20 19 19 17 18 21 19 17 18 17 19 20 19 17 17 18 17 16 18 18 18 18
19 18 18 17 17 17 18 18 18 18 18 20 20 20 21 21 20 20 19 19 19 19 18 16 17 16 18 19 19 17 17 16 16 16 15 17 18 19
18 18 18 18 18 19 18 18 18 18 19 20 21 21 20 19 19 20 19 20 20 19 18 17 17 16 16 16 17 17 18 17 17 17 17 17 17 17
18 18 18 18 18 18 18 18 18 18 18 18 19 18 18 18 19 18 19 19 20 21 19 18 17 17 18 18 18 19 19 19 18 18 19 18 17 17
17 16 17 17 18 18 18 18 17 17 17 17 18 18 18 18 18 17 18 18 20 20 20 20 18 18 18 18 20 19 19 19 18 18 19 19 17 16
17 18 18 18 19 19 20 19 19 18 18 18 18 18 18 19 19 19 18 19 20 20 21 20 19 19 20 20 19 19 19 19 18 19 19 19 18 16
17 17 18 18 19 19 19 19 20 20 19 18 18 18 18 19 18 19 19 19 20 20 20 19 19 19 20 20 20 20 19 19 19 18 18 18 18 17
16 16 17 17 18 18 18 18 18 18 18 18 18 18 18 18 18 18 18 18 19 19 20 19 19 19 18 18 18 18 21 19 18 19 18 17 16 16
16 16 16 16 16 17 17 17 18 18 17 17 18 18 17 17 18 18 19 20 19 18 19 20 20 21 18 18 18 18 17 19 19 19 18 17 16 15
16 16 16 16 16 16 16 17 17 17 17 17 17 17 16 16 17 17 17 17 17 17 18 18 18 17 17 18 18 19 17 17 17 17 18 18 17 17
16 16 16 16 16 17 17 17 18 18 18 18 17 18 17 17 17 17 17 18 18 18 18 18 17 17 18 18 20 18 19 18 17 17 15 17 17 17

GFSNE_con_lsi_111.txt.gz
Lid_Strength_Index
1 1 1 1 1 1 1 2 3 6 5 3 2 -0 -0 -1 0 -0 0 6 8 8 7 6 5 4 4 3 3 3 1 0 1 0 -0 -0 -1 -1
1 1 1 1 1 1 1 1 2 3 5 2 2 1 -0 -0 1 -0 1 5 8 8 8 7 6 5 5 5 5 4 3 2 2 1 1 0 -0 -0
1 1 1 1 1 1 1 1 2 2 4 2 1 0 0 1 0 -0 0 1 3 8 9 8 8 8 7 7 6 6 5 4 3 3 2 2 1 1
2 2 2 1 1 1 1 1 2 1 3 4 2 2 1 0 1 1 1 1 1 8 8 9 9 9 9 9 8 8 8 7 6 6 5 4 3 3
1 2 1 1 2 1 1 2 1 1 2 3 3 2 1 1 1 2 6 8 8 9 11 10 10 9 9 9 9 9 9 9 9 9 8 8 7 6
1 1 1 1 2 2 2 1 1 2 2 3 3 3 2 1 2 7 8 8 9 9 10 11 10 10 10 11 11 11 11 11 11 11 12 12 11 10
4 5 8 11 12 12 8 5 3 2 3 3 3 3 3 4 7 7 9 12 12 11 12 12 12 12 11 11 11 12 12 12 12 12 13 13 13 13
8 9 11 12 13 14 13 14 14 11 6 3 3 4 4 4 5 8 11 13 14 12 15 16 14 15 14 13 13 13 13 13 13 13 14 14 14 15
10 10 11 12 11 11 13 14 15 14 14 12 7 9 6 5 6 9 10 11 14 14 14 17 16 17 15 14 13 14 14 14 14 14 15 15 16 16
14 14 14 14 14 12 13 15 16 16 15 15 15 16 16 15 8 8 10 16 16 16 15 18 16 17 16 15 14 14 14 15 15 15 16 16 16 17
16 16 16 16 15 13 14 16 16 16 15 15 16 16 16 15 13 12 15 15 16 17 17 16 17 19 19 17 16 15 15 15 15 16 16 17 17 17
18 17 16 16 16 15 16 17 19 18 18 17 18 18 18 18 17 16 14 14 17 18 18 18 19 19 21 19 18 16 16 16 16 16 17 18 18 18
19 19 18 16 16 16 17 18 18 17 18 18 19 19 19 20 19 19 18 16 18 20 18 16 17 18 19 21 19 18 18 18 18 18 18 18 19 19
20 19 17 17 16 16 17 17 17 18 18 19 20 20 21 20 20 19 19 19 18 18 17 16 17 18 19 20 20 18 18 17 17 17 18 18 18 19
18 17 17 17 16 17 16 16 16 18 19 20 20 20 20 19 19 19 19 19 19 18 17 16 15 16 16 17 19 18 18 18 17 17 17 17 17 17
16 16 16 17 16 16 16 16 16 16 17 18 18 17 17 17 18 18 19 20 20 20 18 17 16 16 17 16 17 18 17 19 18 18 18 18 17 16
16 16 17 16 17 17 17 17 16 16 17 17 17 17 18 18 18 17 18 18 20 21 21 19 18 17 17 17 19 19 19 19 19 19 20 19 17 16
16 17 18 18 19 18 18 18 18 18 17 17 17 18 18 18 18 18 18 18 20 20 20 20 20 20 20 20 19 19 19 19 19 19 19 20 19 16
16 17 17 17 18 18 19 18 19 18 18 18 18 18 18 18 18 18 19 19 20 20 20 19 19 19 20 21 21 20 19 20 19 19 19 19 19 17
15 16 16 16 17 17 17 17 17 17 17 17 17 17 17 17 18 18 18 18 19 20 20 19 19 19 18 18 20 20 21 19 19 19 18 17 17 16
16 16 16 16 16 16 16 16 17 17 17 16 16 16 16 16 17 18 18 19 18 18 19 19 20 21 18 17 18 18 18 19 19 19 18 18 18 16
15 15 15 16 16 16 16 16 16 16 16 16 16 16 15 15 16 16 16 16 17 17 18 17 17 17 17 17 18 18 17 16 16 16 17 18 18 18
16 16 15 16 15 16 16 16 17 17 18 17 17 17 17 17 16 16 17 17 17 18 17 18 17 17 18 18 19 17 18 18 17 17 16 16 16 16

GFSNE_con_lsi_114.txt.gz
Lid_Strength_Index
2 1 2 1 1 1 2 2 4 7 6 3 3 1 1 1 1 2 2 6 6 6 6 5 4 4 4 3 3 2 2 2 2 2 1 0 -1 -1
2 2 2 2 1 2 2 2 3 4 6 3 3 2 1 1 1 -0 -0 5 7 7 7 7 6 5 5 5 4 4 3 3 3 2 2 1 0 -0
2 2 2 1 2 2 1 2 2 3 5 3 2 2 2 2 1 0 0 2 4 7 7 7 7 7 7 6 6 6 5 5 4 4 3 2 1 0
2 2 2 1 2 2 2 2 2 2 3 5 3 3 3 1 1 1 1 0 1 6 7 7 7 8 8 8 8 7 7 7 6 5 5 4 2 2
2 2 2 2 2 2 2 2 2 2 3 4 4 3 2 1 1 2 2 7 7 7 8 8 8 8 8 9 8 8 8 8 8 8 8 7 6 5
2 2 3 3 3 3 3 3 3 3 3 3 3 3 3 2 1 6 8 8 9 10 10 9 9 9 8 9 9 9 9 9 9 10 10 11 10 9
8 10 12 13 13 11 7 9 8 6 4 3 4 3 3 4 5 6 8 11 12 11 12 11 10 10 10 9 9 9 10 10 11 11 12 12 12 12
12 13 13 13 14 14 14 15 15 13 9 7 4 4 3 3 4 6 11 12 13 12 15 15 13 14 13 12 11 12 11 11 12 12 13 13 14 14
10 11 12 12 13 14 15 16 16 15 15 14 11 14 13 11 7 7 9 10 14 14 14 17 16 16 14 14 13 13 13 13 14 14 14 15 15 15
16 15 15 15 13 14 16 17 17 17 16 16 17 16 16 15 13 8 9 16 15 16 15 18 16 17 16 15 14 14 15 15 15 15 15 15 16 16
17 16 16 16 14 14 16 18 18 19 16 16 16 16 16 15 14 11 13 14 16 17 16 17 18 19 17 17 16 15 15 15 16 16 16 16 16 16
18 17 16 17 17 16 17 18 20 20 19 18 18 18 18 18 16 16 14 13 16 17 17 18 19 19 21 19 16 16 16 16 15 16 16 17 17 17
19 18 17 17 16 17 17 19 19 19 19 19 19 19 19 19 19 18 17 16 17 19 17 17 18 19 20 21 19 18 18 18 18 17 17 18 18 18
19 18 17 16 16 16 17 18 18 18 19 19 19 20 20 19 19 18 18 17 16 16 16 16 18 19 20 21 21 19 19 18 18 19 19 18 18 18
17 17 16 16 16 17 16 16 17 17 18 19 19 19 18 18 18 18 18 17 18 17 16 15 17 17 18 19 20 20 19 18 17 18 18 18 18 18
17 16 17 17 17 18 18 17 17 17 18 18 18 17 17 17 18 18 19 19 20 20 18 18 16 16 18 18 18 19 18 20 19 19 18 18 18 17
18 18 19 19 19 19 19 19 18 18 18 18 17 18 18 18 18 18 18 19 21 21 21 19 19 19 20 18 19 19 19 20 19 19 20 20 18 17
18 19 20 20 20 20 20 20 20 19 19 18 19 18 19 18 18 18 18 20 21 21 21 20 20 19 19 20 18 20 19 20 20 19 20 20 19 17
18 18 19 19 20 20 20 19 20 19 18 18 18 19 19 18 18 19 19 19 20 20 20 19 19 20 21 23 21 20 20 20 20 20 20 20 20 19
17 18 18 18 18 18 18 19 19 19 19 19 19 19 19 19 19 20 20 21 20 20 20 20 21 21 21 21 22 22 19 20 20 20 20 19 19 17
17 17 17 17 17 17 18 18 19 19 18 17 17 17 18 18 19 19 20 21 20 18 20 21 21 21 19 19 24 22 21 19 19 20 20 22 21 19
18 17 17 17 18 18 18 20 18 19 19 18 19 19 18 17 18 19 19 20 19 19 19 19 18 17 17 18 20 23 19 19 17 16 17 18 21 24
19 19 18 19 19 19 18 20 20 19 21 21 20 20 22 20 19 19 20 20 20 19 19 19 18 18 18 19 21 21 21 21 18 18 18 15 16 16

GFSNE_con_lsi_117.txt.gz
Lid_Strength_Index
1 1 2 2 2 3 2 2 4 7 6 5 5 3 1 1 2 2 1 5 7 6 6 5 4 4 4 3 3 2 2 2 1 1 2 1 1 0
1 2 2 2 2 2 2 2 2 4 6 4 4 3 2 2 3 2 2 5 7 8 7 6 5 4 4 4 4 4 4 3 3 2 2 2 2 1
2 2 2 3 3 3 3 3 2 3 5 5 3 3 3 2 2 2 2 2 3 7 8 7 7 6 6 6 6 5 5 4 4 4 3 3 2 1
2 2 2 3 3 3 2 2 2 2 4 5 4 4 3 3 2 2 2 1 1 6 7 8 7 7 7 7 7 7 7 6 6 5 5 4 3 2
2 2 2 2 4 3 2 2 2 2 2 4 4 4 4 2 3 2 3 4 4 6 8 8 8 8 7 7 7 7 8 7 7 7 7 7 6 5
2 2 2 2 3 2 2 2 2 2 3 3 4 3 3 3 3 5 7 8 8 8 9 8 7 8 8 8 8 7 8 7 7 8 8 9 9 7
7 9 10 9 7 5 4 6 5 5 4 4 4 4 4 3 3 4 5 11 11 10 11 12 9 9 9 8 7 8 8 8 9 8 9 10 10 9
12 14 13 14 13 14 14 15 12 8 7 6 5 5 4 4 4 6 10 11 11 11 14 15 13 13 12 11 10 9 9 9 9 9 9 10 11 11
12 11 14 14 15 15 16 16 16 16 15 12 10 14 13 14 13 8 8 10 11 14 14 16 16 16 14 13 11 11 11 11 12 12 12 12 13 13
16 15 14 15 15 16 16 17 18 17 17 17 18 17 16 15 14 10 10 15 14 14 14 17 16 17 16 15 13 13 13 13 14 14 14 14 15 15
17 16 16 17 16 15 17 19 19 19 16 16 16 17 17 16 14 12 13 13 15 15 15 16 17 18 18 17 16 14 14 15 15 15 15 15 16 16
17 17 17 17 17 17 18 19 20 20 20 19 19 19 18 18 16 16 14 13 15 15 15 17 18 18 20 18 17 17 16 16 15 15 15 15 16 18
18 18 17 16 17 17 18 19 20 19 19 19 19 19 19 19 19 18 16 15 15 17 15 15 17 18 19 20 19 18 17 17 17 17 16 16 16 16
18 17 16 16 16 16 17 17 18 18 18 19 19 20 20 20 19 18 17 17 15 15 15 15 17 18 19 20 21 19 19 18 18 19 19 18 18 18
17 17 17 17 18 18 17 17 17 18 19 19 20 19 19 18 17 18 17 17 17 18 16 16 16 17 17 19 20 20 20 19 18 19 19 18 19 18
18 18 18 18 19 19 19 18 18 18 18 19 19 19 18 18 19 18 19 18 19 19 18 18 17 16 18 18 18 19 18 19 18 18 18 18 18 17
18 19 20 20 20 20 20 20 19 18 19 19 19 19 19 18 19 19 19 19 21 20 20 19 18 18 18 17 19 19 19 19 19 19 19 20 19 18
18 20 21 21 22 21 21 20 20 20 19 19 19 19 19 19 19 19 19 20 21 20 20 19 19 19 19 19 18 19 19 20 19 19 19 20 20 18
18 19 19 19 19 19 20 20 21 20 19 19 19 19 19 19 19 20 20 20 20 20 20 19 19 19 21 23 21 18 19 19 20 20 19 19 20 19
18 18 19 18 18 18 18 18 19 19 18 18 19 19 20 20 20 20 20 21 21 21 22 22 22 21 22 23 23 22 18 20 20 20 20 20 20 18
18 18 18 19 19 18 20 19 21 20 20 20 20 19 20 19 19 19 20 21 20 20 23 23 22 22 19 20 25 24 22 19 20 21 21 23 23 21
21 20 19 20 21 20 20 22 22 22 21 21 22 22 21 20 21 21 21 21 19 19 19 19 18 18 19 19 22 24 20 20 18 18 18 19 21 24
26 22 21 22 22 22 21 21 23 24 24 24 23 23 24 23 21 22 22 21 20 20 19 19 18 18 18 19 19 20 21 21 18 18 18 16 16 16

GFSNE_con_lsi_120.txt.gz
Lid_Strength_Index
2 2 2 2 1 2 2 3 4 7 6 5 4 2 1 1 2 2 2 5 7 7 6 4 4 4 3 3 3 3 2 2 2 1 -0 1 -0 -0
1 2 2 2 2 2 2 2 3 4 6 4 4 4 2 1 2 1 2 5 7 8 8 7 5 5 4 4 4 4 3 3 3 2 2 2 1 -0
2 2 2 1 2 2 2 2 3 4 5 5 4 3 3 2 3 2 3 3 4 8 8 8 8 6 6 5 5 5 5 4 4 4 3 2 2 2
2 2 2 2 2 2 2 2 3 3 3 4 4 5 4 3 3 2 2 2 3 7 8 8 8 8 8 7 7 6 6 6 6 5 5 4 3 2
2 2 2 2 2 2 2 3 3 3 3 4 4 3 3 3 3 3 2 3 4 6 8 8 8 8 8 8 7 7 7 7 7 7 7 6 5 5
2 2 2 2 2 2 3 3 3 3 3 3 3 4 4 3 3 4 6 7 6 8 9 10 8 8 8 8 7 7 7 7 7 7 8 8 8 7
4 3 3 3 5 4 3 3 2 3 3 3 4 5 5 4 3 5 4 9 10 9 10 13 11 10 10 8 7 7 7 7 7 7 7 8 9 8
10 10 10 11 10 11 12 12 6 3 3 4 4 4 5 5 5 6 9 9 8 10 12 14 13 14 13 11 10 9 8 9 8 8 8 8 9 9
12 12 13 14 14 13 14 14 15 15 13 7 7 10 9 13 12 9 9 9 9 13 13 15 15 16 15 12 11 11 9 9 9 9 10 10 10 10
15 16 15 15 16 16 15 16 17 17 17 17 16 17 17 16 15 12 11 15 14 14 14 16 16 17 15 15 14 13 12 11 11 11 11 12 12 13
17 16 16 16 16 16 18 18 19 19 16 16 16 16 16 16 15 13 15 14 15 15 15 15 16 18 17 16 15 14 14 14 13 13 13 14 14 14
17 17 16 16 17 16 18 19 20 20 19 20 19 18 18 17 17 17 15 14 16 16 15 16 17 17 19 17 17 16 16 15 15 15 15 15 16 17
19 18 16 16 16 16 17 18 19 18 18 18 19 19 19 19 18 18 17 16 15 17 15 15 17 17 17 18 18 17 17 17 17 16 16 16 16 17
19 19 18 17 16 16 17 17 17 18 18 19 19 20 19 19 19 18 18 18 17 16 16 15 17 17 18 19 20 18 18 18 19 19 18 17 16 16
19 18 18 18 18 18 17 17 18 18 19 20 20 20 19 19 18 18 18 18 18 18 17 16 16 17 17 19 19 19 19 18 18 19 19 19 19 18
19 19 19 18 19 19 19 18 18 19 19 19 19 19 19 19 20 19 20 19 20 20 18 17 16 16 18 18 18 19 18 20 18 18 18 18 18 18
19 20 21 21 21 21 20 20 20 19 20 19 19 19 19 19 19 19 19 20 21 21 20 19 18 18 17 17 19 19 19 19 19 18 18 19 18 18
18 20 20 20 20 21 21 21 21 20 20 19 20 19 19 19 19 19 19 20 21 20 20 19 18 19 19 19 17 19 19 19 19 19 19 20 20 18
19 20 20 19 20 19 19 19 20 19 18 20 21 21 20 19 19 20 20 19 20 20 21 20 19 20 21 24 21 18 19 19 19 20 19 20 20 19
19 20 21 20 19 20 20 20 20 20 20 20 20 20 20 19 21 21 21 21 21 21 22 22 22 20 21 23 23 22 17 20 20 21 21 20 20 18
20 21 22 22 21 21 21 22 22 22 22 22 22 21 22 20 20 20 20 20 20 21 23 23 22 21 20 21 25 23 21 18 19 21 21 22 23 21
23 22 22 23 23 23 23 25 25 25 25 24 24 23 23 22 22 22 21 21 20 20 20 19 18 17 17 19 23 28 22 22 19 18 19 20 23 25
29 26 27 28 27 26 24 27 28 29 28 27 26 25 25 24 23 23 23 22 21 21 20 20 19 19 19 19 21 23 22 22 19 19 19 16 17 16

GFSNE_con_lsi_123.txt.gz
Lid_Strength_Index
2 2 2 2 1 1 2 2 4 7 6 5 3 2 1 1 2 2 2 6 8 7 6 5 3 3 3 3 2 2 2 2 2 2 2 0 0 -0
2 2 2 2 2 1 2 2 2 4 6 3 4 3 1 1 2 1 2 6 8 8 7 6 5 4 4 3 4 3 3 3 2 3 3 2 1 0
3 2 2 2 2 2 2 2 2 3 5 3 4 4 2 2 2 2 2 3 5 8 9 8 7 7 6 6 5 4 4 4 4 4 3 3 2 2
4 3 2 2 2 2 2 2 2 2 3 5 5 5 4 2 2 3 2 2 3 8 9 9 8 8 8 7 7 6 5 5 4 5 4 4 3 3
4 4 2 2 3 2 2 2 2 2 3 3 5 5 5 4 4 3 3 3 4 7 9 9 8 8 8 8 8 7 7 7 6 7 7 6 5 4
3 3 2 2 2 2 2 2 2 3 3 3 4 6 5 3 4 4 5 5 7 8 10 10 9 9 9 8 8 8 7 7 6 6 7 8 8 7
4 5 6 7 7 4 2 2 2 3 3 4 4 5 5 4 4 4 4 8 10 9 10 13 11 11 11 10 9 8 8 8 7 7 7 8 9 8
11 12 12 12 10 11 11 11 7 3 3 4 4 4 4 3 3 4 8 8 8 11 11 15 13 14 14 13 11 11 10 9 8 7 7 7 8 8
15 14 14 13 13 12 13 14 15 15 14 6 4 5 6 7 6 7 8 8 9 13 12 16 15 15 15 13 12 11 10 10 9 9 8 8 8 9
16 15 15 15 14 15 16 17 18 17 17 16 16 17 16 15 12 9 10 15 16 15 14 16 16 17 15 14 13 12 12 10 10 9 10 9 10 9
16 16 16 16 14 13 16 18 18 19 17 17 16 17 16 16 15 13 15 13 16 16 16 16 17 18 17 16 16 13 13 13 12 12 12 12 12 13
18 17 16 16 15 15 17 18 19 19 18 17 17 18 18 18 17 17 15 14 16 16 15 17 17 17 19 17 16 15 15 13 13 14 14 14 14 15
20 19 18 16 16 16 17 18 19 17 18 17 18 18 18 18 18 19 18 17 15 16 16 16 18 18 18 20 19 18 17 16 16 15 15 15 15 16
20 19 19 17 17 17 17 17 17 18 18 18 18 19 19 20 18 18 18 18 18 17 16 15 17 18 19 20 21 19 18 18 17 17 16 16 16 16
20 19 19 19 19 19 18 18 19 19 19 20 20 20 19 19 19 18 18 18 18 18 17 17 17 17 18 19 20 20 20 19 18 18 17 17 17 17
19 20 20 19 20 21 21 20 20 20 20 20 20 19 19 19 20 19 20 19 20 20 19 18 17 17 19 19 19 20 19 20 19 18 18 18 17 17
19 19 20 21 21 21 21 21 21 21 21 20 20 20 20 19 19 19 19 19 21 21 20 19 18 18 18 18 20 19 20 20 19 19 19 19 18 18
19 21 21 21 21 21 21 21 21 21 21 21 21 21 20 20 20 19 18 19 20 21 20 19 18 19 19 19 17 20 19 19 19 19 19 20 20 18
21 22 22 22 21 21 21 21 22 21 20 21 22 21 21 21 20 20 20 20 21 21 21 20 19 19 21 23 20 17 20 19 19 20 19 20 20 19
21 23 23 23 22 22 22 22 22 22 23 22 22 22 22 20 20 20 20 21 21 21 21 21 21 20 21 22 22 21 17 19 20 21 21 20 19 18
22 23 23 23 23 23 25 26 26 26 26 25 24 23 24 22 21 21 20 21 21 20 21 22 22 20 20 20 23 23 22 18 18 20 20 22 22 21
25 24 24 25 26 26 28 30 28 28 27 26 26 26 26 24 23 23 22 22 21 20 20 19 18 17 17 19 23 24 22 22 18 18 18 19 22 23
30 27 29 30 30 30 27 30 31 32 30 29 29 28 27 25 24 24 23 22 22 22 21 21 19 19 19 19 20 21 22 22 20 20 19 16 16 16

GFSNE_con_lsi_129.txt.gz
Lid_Strength_Index
6 6 6 4 2 2 2 2 3 6 5 3 2 0 -0 -0 0 -1 -0 3 8 8 8 7 6 5 4 2 2 2 2 1 1 1 1 1 1 1
6 6 6 5 3 1 1 1 2 4 5 2 2 1 0 0 0 -1 -0 3 7 9 9 8 8 6 5 4 4 3 3 2 2 2 2 2 1 1
7 7 6 5 5 2 1 1 2 2 4 3 1 0 1 1 0 -0 -0 -0 1 8 9 9 9 8 7 5 4 5 4 3 2 2 2 2 2 1
9 7 6 5 5 4 1 2 2 2 3 4 2 2 1 0 0 0 0 0 1 6 9 9 9 9 8 7 6 6 6 5 5 4 3 3 2 2
10 9 7 6 6 4 3 2 2 2 2 3 3 1 1 1 1 1 1 1 1 5 9 10 10 9 9 8 7 7 7 6 6 6 6 5 5 4
9 9 8 7 6 4 3 2 2 2 2 3 3 3 2 1 1 3 3 2 4 6 8 8 9 9 9 9 9 8 8 7 7 7 7 7 7 6
11 10 9 10 9 7 4 3 2 2 3 3 4 3 3 3 3 3 3 3 7 7 8 9 9 10 10 10 10 10 9 9 9 8 8 9 8 7
14 13 13 12 11 12 12 12 12 6 3 3 4 4 3 3 2 3 3 6 7 8 8 11 10 12 13 11 12 12 11 11 10 10 9 9 9 9
16 16 15 14 13 13 13 13 13 13 14 7 9 7 5 6 2 3 3 4 4 7 8 14 14 15 14 13 13 12 12 11 11 10 10 10 10 9
18 17 17 16 15 15 14 15 15 15 15 15 15 15 16 14 13 9 2 7 13 14 10 14 16 16 16 15 13 13 13 12 12 11 10 10 10 9
19 18 18 18 17 16 18 18 17 17 15 15 15 15 15 14 14 10 12 9 14 15 15 14 16 16 16 16 15 13 13 13 13 12 11 10 10 10
19 19 18 17 17 17 19 19 20 18 17 17 16 16 16 15 15 15 15 14 14 15 16 15 16 16 17 16 17 16 15 14 14 13 12 11 10 9
20 21 20 19 18 18 18 19 19 18 18 17 16 17 16 16 16 16 16 17 16 16 17 15 16 16 16 18 18 17 17 16 15 14 14 13 12 12
21 20 20 19 19 19 19 19 19 19 19 18 18 18 17 17 16 16 16 16 17 18 17 15 16 16 18 19 19 19 18 17 16 15 15 15 15 15
19 19 19 19 19 20 20 20 20 20 20 21 21 20 18 17 17 16 15 16 16 16 18 17 16 16 17 18 20 20 19 19 17 17 16 16 16 16
19 19 19 19 20 20 20 20 20 20 20 21 20 19 18 18 18 17 18 18 17 17 16 17 17 16 18 18 18 20 19 20 19 18 18 17 17 17
19 19 20 20 21 21 20 21 20 20 20 20 20 20 20 19 19 18 18 18 18 19 18 17 16 17 17 17 19 19 19 19 18 18 19 19 18 18
19 20 21 21 21 21 21 21 21 21 20 20 19 19 19 19 19 19 19 19 19 19 19 19 17 17 17 18 17 18 19 19 18 18 18 20 19 18
20 20 21 20 21 22 21 22 22 22 21 20 20 20 19 18 17 18 18 18 19 19 19 18 18 18 19 21 19 18 18 18 18 18 18 18 19 18
20 21 21 21 21 21 22 22 22 22 22 21 21 21 20 19 19 19 18 18 18 18 18 18 18 19 19 19 19 19 17 17 18 19 19 17 17 17
20 20 20 20 20 21 21 21 22 22 22 22 22 22 21 20 20 19 19 19 18 18 18 18 17 17 15 16 17 18 17 17 17 18 18 18 19 18
22 22 22 21 21 21 21 21 21 22 22 22 22 22 21 21 21 20 20 20 19 19 18 17 16 16 15 16 17 17 17 17 17 17 18 18 18 19
23 22 22 22 22 22 22 22 22 22 22 23 23 22 22 22 21 21 21 20 20 20 20 19 17 16 17 17 17 17 18 17 16 17 17 17 17 17

GFSNE_con_lsi_132.txt.gz
Lid_Strength_Index
7 6 6 5 4 2 2 3 4 6 5 2 2 -0 -0 -0 0 -1 -1 4 7 7 7 7 6 5 4 4 3 2 1 0 0 0 0 0 -0 -0
8 7 6 5 5 4 3 1 2 3 5 2 2 0 -0 0 0 -0 -1 3 7 8 8 8 8 7 6 6 5 4 3 2 1 1 1 0 0 1
8 7 7 5 5 5 5 2 1 2 4 2 1 1 0 0 0 -0 -0 -0 -0 8 8 8 9 9 8 8 7 6 5 3 3 2 2 1 1 2
10 9 8 7 7 5 5 5 2 1 3 4 2 1 1 0 0 0 0 -0 -0 5 8 8 8 10 10 9 8 8 6 5 5 4 4 3 2 2
10 10 9 8 7 6 5 5 4 1 1 3 3 1 1 1 1 1 1 0 -0 5 9 9 9 9 10 10 9 8 7 6 7 7 6 6 4 3
12 11 9 8 8 7 7 5 4 3 2 2 3 2 2 1 1 2 3 1 1 2 5 6 8 9 9 9 9 9 8 7 7 7 7 8 7 6
14 13 12 11 10 10 8 6 5 3 3 3 3 3 3 3 3 3 3 2 2 4 4 6 6 6 7 10 7 9 9 8 7 7 7 8 8 8
17 16 14 13 11 12 12 12 12 10 7 3 3 3 3 2 2 2 3 4 6 6 5 6 7 7 7 7 9 10 10 9 9 8 8 9 9 9
17 17 16 15 14 13 13 13 13 13 13 11 7 12 10 12 10 8 3 3 3 2 4 8 10 12 12 12 13 12 11 11 10 10 10 10 10 10
18 17 17 17 16 16 15 16 16 15 15 14 14 14 14 13 10 10 10 8 9 11 8 10 14 14 15 14 13 13 13 13 12 11 11 11 11 10
18 18 18 18 17 16 17 18 18 17 15 14 14 14 14 14 14 12 13 12 13 15 15 14 15 16 16 16 15 14 14 13 13 12 12 11 11 11
17 18 18 19 18 18 19 18 19 18 17 17 17 16 15 15 15 16 16 15 14 14 16 15 15 14 15 16 16 16 16 14 14 14 14 13 12 10
19 19 18 18 19 19 19 19 19 18 18 17 17 17 17 17 16 16 16 18 18 16 16 15 15 14 15 16 16 16 16 16 15 15 14 14 13 11
18 18 18 19 19 19 20 19 19 19 18 18 18 18 17 16 16 16 15 15 15 16 16 16 15 14 14 15 17 17 17 17 16 16 16 16 15 15
16 17 17 18 19 19 19 20 19 19 19 19 19 18 17 16 15 15 14 14 14 15 15 16 16 16 16 16 17 17 18 18 17 17 17 16 16 16
16 16 17 16 17 17 16 17 18 18 19 19 19 17 16 17 16 15 15 15 15 15 15 14 15 15 15 16 17 18 18 19 18 18 18 18 17 17
16 16 17 17 17 17 17 17 17 17 17 17 17 18 17 17 17 16 16 16 17 17 16 15 14 15 16 16 17 17 18 18 18 18 18 19 18 18
16 17 17 17 18 18 18 18 18 18 18 18 18 18 17 17 17 17 17 17 18 18 18 17 16 15 15 17 17 17 17 17 17 17 17 19 19 18
17 18 18 18 18 18 18 19 19 19 18 18 18 18 17 17 17 17 17 17 18 18 18 18 17 18 18 18 18 17 17 17 17 17 16 17 18 17
18 18 18 18 18 18 18 18 18 19 18 18 18 18 18 17 18 18 17 17 17 16 16 16 18 19 19 19 18 17 17 16 17 17 17 17 18 17
19 19 19 19 19 19 18 18 18 18 19 19 19 19 19 18 18 18 18 18 18 17 17 17 15 14 14 14 15 16 17 17 17 16 16 17 18 18
20 20 20 20 20 20 19 19 19 19 19 19 19 19 19 18 19 19 18 18 18 18 18 17 15 15 14 15 15 15 15 15 16 17 17 18 17 18
21 21 21 21 21 21 21 20 20 20 20 20 20 20 19 20 19 19 19 19 19 19 19 18 17 15 15 15 16 15 16 15 14 15 15 15 16 15

GFSNE_con_lsi_135.txt.gz
Lid_Strength_Index
8 8 7 6 5 5 3 2 3 6 5 3 3 0 0 -0 1 -0 -0 4 6 7 6 6 5 4 4 3 3 3 2 1 1 1 0 0 -0 -0
9 9 8 7 6 5 5 3 2 3 6 2 2 1 0 0 0 -0 -0 4 7 8 8 7 7 6 5 5 4 4 3 3 2 2 1 0 0 -0
10 10 9 8 7 7 5 5 4 3 4 2 1 1 1 1 1 -0 0 -0 0 8 8 8 8 7 7 7 6 6 5 5 4 3 2 2 0 -0
12 11 10 9 7 6 6 6 5 4 3 4 2 2 1 1 1 1 1 0 0 6 8 8 8 8 8 8 9 9 8 7 6 6 5 3 2 1
13 13 12 12 9 8 7 6 6 4 4 4 3 1 1 1 1 1 1 1 0 4 9 9 9 9 9 9 9 9 9 9 9 8 7 6 5 4
13 13 13 13 11 11 9 8 6 5 4 4 3 3 2 1 1 2 3 1 1 0 5 7 8 9 9 9 9 9 10 10 9 9 8 8 8 6
14 14 14 13 12 12 11 11 9 7 6 5 4 3 3 3 3 2 3 2 2 1 1 3 4 5 6 9 7 9 10 10 9 9 8 8 8 7
17 16 16 15 15 14 13 13 12 12 9 8 7 7 7 9 8 5 3 3 5 5 4 3 4 4 4 5 8 9 10 10 10 9 8 8 9 9
17 18 17 17 16 16 15 14 14 13 13 13 14 15 14 14 13 9 5 4 5 6 3 6 9 8 9 11 11 10 10 10 10 10 9 9 9 9
17 18 18 18 17 17 16 16 15 15 14 14 14 14 14 14 13 11 9 8 6 12 13 12 13 14 14 13 12 12 12 11 12 12 11 11 10 10
17 17 18 19 17 16 18 18 17 17 14 13 14 14 14 14 14 13 14 10 9 13 15 14 15 16 16 15 14 13 13 13 13 13 13 12 12 12
18 18 17 17 17 18 19 19 19 17 16 16 15 15 15 14 14 15 16 17 14 13 14 15 15 14 15 15 15 15 15 15 14 14 14 13 12 12
17 17 17 17 17 17 18 19 19 18 17 17 16 16 15 16 16 14 15 16 17 17 15 15 14 14 15 15 16 15 15 15 15 14 15 14 14 13
16 16 15 15 16 17 18 18 18 18 18 19 19 18 18 18 16 15 15 15 15 16 15 15 15 16 16 15 16 16 16 16 15 15 15 15 15 15
14 15 15 15 16 16 16 16 18 19 19 20 20 19 18 17 16 16 15 14 14 15 15 15 16 16 16 17 17 18 17 17 16 16 16 16 16 16
14 15 15 15 16 16 16 16 16 16 17 18 18 17 17 17 17 17 17 16 16 16 14 14 15 15 16 16 17 17 17 18 16 16 15 16 16 16
14 14 15 16 17 17 17 17 17 17 17 17 17 17 16 16 17 16 17 17 17 17 17 16 14 15 15 16 16 16 16 17 16 16 16 17 17 17
16 17 17 16 17 17 17 17 17 18 18 17 17 18 17 17 17 16 16 17 17 18 17 16 17 16 15 16 16 18 16 16 16 15 15 17 18 17
17 17 17 17 17 18 18 17 18 17 18 17 18 18 18 17 17 17 17 17 17 16 16 16 17 18 19 19 16 16 18 16 16 16 15 16 17 18
18 18 19 19 19 19 19 18 18 17 18 17 18 18 18 18 18 18 18 18 18 17 17 16 16 17 18 18 18 16 16 17 17 16 17 17 17 17
19 19 19 19 20 19 19 19 18 18 18 18 18 18 18 18 18 18 18 19 18 18 19 18 17 15 14 13 14 15 15 16 17 18 18 17 18 17
20 20 20 20 20 20 20 19 19 19 19 19 19 19 18 18 19 19 19 19 19 18 19 18 16 16 15 15 16 15 14 14 14 15 17 18 18 19
21 21 21 21 21 21 21 21 21 21 21 21 21 20 20 19 19 19 19 19 19 20 20 19 18 17 16 16 15 15 15 15 14 15 15 15 15 14